Time,TemperatureF,DewpointF,PressureIn,WindDirection,WindDirectionDegrees,WindSpeedMPH,WindSpeedGustMPH,Humidity,HourlyPrecipIn,Conditions,Clouds,dailyrainin,SoftwareType,DateUTC
2009-09-25 00:00:00,70.3,38.2,29.88,SW,215,1.0,1.0,31,0.00,,,0.00,Wunderground v.1.15,2009-09-25 07:00:00,
2009-09-25 00:03:00,70.4,38.3,29.88,SW,214,0.0,1.0,31,0.00,,,0.00,Wunderground v.1.15,2009-09-25 07:03:00,
2009-09-25 00:05:00,70.4,38.3,29.88,SW,215,0.0,1.0,31,0.00,,,0.00,Wunderground v.1.15,2009-09-25 07:05:00,
2009-09-25 00:07:00,70.4,38.3,29.88,SW,215,1.0,1.0,31,0.00,,,0.00,Wunderground v.1.15,2009-09-25 07:07:00,
2009-09-25 00:09:00,70.4,38.3,29.88,SW,214,0.0,1.0,31,0.00,,,0.00,Wunderground v.1.15,2009-09-25 07:09:00,
2009-09-25 00:13:00,70.4,38.3,29.88,SW,214,1.0,1.0,31,0.00,,,0.00,Wunderground v.1.15,2009-09-25 07:13:00,
2009-09-25 00:15:00,70.5,38.4,29.88,SW,215,0.0,1.0,31,0.00,,,0.00,Wunderground v.1.15,2009-09-25 07:15:00,
2009-09-25 00:18:00,70.6,38.5,29.88,SW,215,0.0,1.0,31,0.00,,,0.00,Wunderground v.1.15,2009-09-25 07:18:00,
2009-09-25 00:21:00,70.7,38.6,29.88,SW,215,1.0,1.0,31,0.00,,,0.00,Wunderground v.1.15,2009-09-25 07:21:00,
2009-09-25 00:22:00,70.8,38.7,29.88,SW,215,0.0,1.0,31,0.00,,,0.00,Wunderground v.1.15,2009-09-25 07:22:00,
2009-09-25 00:23:00,70.8,37.8,29.87,SW,214,0.0,1.0,30,0.00,,,0.00,Wunderground v.1.15,2009-09-25 07:23:00,
2009-09-25 00:26:00,71.0,38.0,29.88,SW,214,0.0,1.0,30,0.00,,,0.00,Wunderground v.1.15,2009-09-25 07:26:00,
2009-09-25 00:27:00,71.1,38.1,29.88,SW,215,0.0,1.0,30,0.00,,,0.00,Wunderground v.1.15,2009-09-25 07:27:00,
2009-09-25 00:28:00,71.3,38.2,29.87,SW,215,1.0,1.0,30,0.00,,,0.00,Wunderground v.1.15,2009-09-25 07:28:00,
2009-09-25 00:29:00,71.3,38.2,29.87,SW,215,0.0,1.0,30,0.00,,,0.00,Wunderground v.1.15,2009-09-25 07:29:00,
2009-09-25 00:33:00,71.5,38.4,29.87,SW,214,0.0,0.0,30,0.00,,,0.00,Wunderground v.1.15,2009-09-25 07:33:00,
2009-09-25 00:34:00,71.5,38.4,29.87,SW,214,0.0,0.0,30,0.00,,,0.00,Wunderground v.1.15,2009-09-25 07:34:00,
2009-09-25 00:37:00,71.7,38.6,29.87,SW,214,0.0,0.0,30,0.00,,,0.00,Wunderground v.1.15,2009-09-25 07:37:00,
2009-09-25 00:38:00,71.9,38.8,29.87,SW,215,0.0,0.0,30,0.00,,,0.00,Wunderground v.1.15,2009-09-25 07:38:00,
2009-09-25 00:39:00,71.9,38.8,29.87,SW,214,0.0,0.0,30,0.00,,,0.00,Wunderground v.1.15,2009-09-25 07:39:00,
2009-09-25 00:43:00,72.2,38.2,29.87,SW,215,0.0,0.0,29,0.00,,,0.00,Wunderground v.1.15,2009-09-25 07:43:00,
2009-09-25 00:45:00,72.3,38.2,29.87,SW,215,0.0,0.0,29,0.00,,,0.00,Wunderground v.1.15,2009-09-25 07:45:00,
2009-09-25 00:50:00,72.4,38.3,29.87,SW,215,0.0,0.0,29,0.00,,,0.00,Wunderground v.1.15,2009-09-25 07:50:00,
2009-09-25 00:51:00,72.4,38.3,29.87,SW,215,0.0,0.0,29,0.00,,,0.00,Wunderground v.1.15,2009-09-25 07:51:00,
2009-09-25 00:52:00,72.4,38.3,29.87,SW,215,0.0,0.0,29,0.00,,,0.00,Wunderground v.1.15,2009-09-25 07:52:00,
2009-09-25 00:55:00,72.4,37.4,29.87,SW,214,0.0,0.0,28,0.00,,,0.00,Wunderground v.1.15,2009-09-25 07:55:00,
2009-09-25 00:57:00,72.5,37.5,29.87,SW,215,0.0,0.0,28,0.00,,,0.00,Wunderground v.1.15,2009-09-25 07:57:00,
2009-09-25 00:59:00,72.7,37.7,29.87,SW,214,0.0,0.0,28,0.00,,,0.00,Wunderground v.1.15,2009-09-25 07:59:00,
2009-09-25 01:00:00,72.8,37.8,29.87,SW,215,0.0,0.0,28,0.00,,,0.00,Wunderground v.1.15,2009-09-25 08:00:00,
2009-09-25 01:02:00,73.1,37.1,29.87,SW,215,0.0,0.0,27,0.00,,,0.00,Wunderground v.1.15,2009-09-25 08:02:00,
2009-09-25 01:03:00,73.3,37.3,29.87,SW,214,0.0,0.0,27,0.00,,,0.00,Wunderground v.1.15,2009-09-25 08:03:00,
2009-09-25 01:07:00,73.7,37.6,29.87,SW,215,0.0,0.0,27,0.00,,,0.00,Wunderground v.1.15,2009-09-25 08:07:00,
2009-09-25 01:08:00,73.7,37.6,29.87,SW,215,0.0,0.0,27,0.00,,,0.00,Wunderground v.1.15,2009-09-25 08:08:00,
2009-09-25 01:11:00,73.9,37.8,29.87,SW,214,0.0,0.0,27,0.00,,,0.00,Wunderground v.1.15,2009-09-25 08:11:00,
2009-09-25 01:14:00,74.2,37.1,29.87,SW,214,0.0,0.0,26,0.00,,,0.00,Wunderground v.1.15,2009-09-25 08:14:00,
2009-09-25 01:16:00,74.2,37.1,29.87,SW,215,0.0,0.0,26,0.00,,,0.00,Wunderground v.1.15,2009-09-25 08:16:00,
2009-09-25 01:19:00,74.2,37.1,29.87,SW,215,0.0,0.0,26,0.00,,,0.00,Wunderground v.1.15,2009-09-25 08:19:00,
2009-09-25 01:20:00,74.2,37.1,29.87,SW,215,0.0,0.0,26,0.00,,,0.00,Wunderground v.1.15,2009-09-25 08:20:00,
2009-09-25 01:25:00,74.1,36.0,29.87,SW,214,0.0,0.0,25,0.00,,,0.00,Wunderground v.1.15,2009-09-25 08:25:00,
2009-09-25 01:26:00,74.0,35.9,29.87,SW,214,0.0,0.0,25,0.00,,,0.00,Wunderground v.1.15,2009-09-25 08:26:00,
2009-09-25 01:27:00,74.0,35.9,29.87,SW,214,0.0,0.0,25,0.00,,,0.00,Wunderground v.1.15,2009-09-25 08:27:00,
2009-09-25 01:31:00,74.2,36.1,29.87,SW,215,0.0,0.0,25,0.00,,,0.00,Wunderground v.1.15,2009-09-25 08:31:00,
2009-09-25 01:32:00,74.2,36.1,29.87,SW,215,1.0,1.0,25,0.00,,,0.00,Wunderground v.1.15,2009-09-25 08:32:00,
2009-09-25 01:33:00,74.2,36.1,29.87,SW,215,0.0,1.0,25,0.00,,,0.00,Wunderground v.1.15,2009-09-25 08:33:00,
2009-09-25 01:36:00,74.3,35.2,29.87,SW,215,0.0,1.0,24,0.00,,,0.00,Wunderground v.1.15,2009-09-25 08:36:00,
2009-09-25 01:37:00,74.3,35.2,29.87,SW,214,0.0,1.0,24,0.00,,,0.00,Wunderground v.1.15,2009-09-25 08:37:00,
2009-09-25 01:40:00,74.4,35.2,29.87,SW,214,0.0,0.0,24,0.00,,,0.00,Wunderground v.1.15,2009-09-25 08:40:00,
2009-09-25 01:41:00,74.4,35.2,29.87,SW,214,0.0,0.0,24,0.00,,,0.00,Wunderground v.1.15,2009-09-25 08:41:00,
2009-09-25 01:44:00,74.6,34.3,29.87,SW,215,0.0,0.0,23,0.00,,,0.00,Wunderground v.1.15,2009-09-25 08:44:00,
2009-09-25 01:46:00,74.8,34.5,29.87,SW,215,0.0,0.0,23,0.00,,,0.00,Wunderground v.1.15,2009-09-25 08:46:00,
2009-09-25 01:49:00,75.0,34.7,29.87,SW,215,0.0,0.0,23,0.00,,,0.00,Wunderground v.1.15,2009-09-25 08:49:00,
2009-09-25 01:50:00,75.1,33.6,29.87,SW,215,0.0,0.0,22,0.00,,,0.00,Wunderground v.1.15,2009-09-25 08:50:00,
2009-09-25 01:53:00,75.2,33.7,29.87,SW,215,0.0,0.0,22,0.00,,,0.00,Wunderground v.1.15,2009-09-25 08:53:00,
2009-09-25 01:55:00,75.3,33.8,29.87,SW,214,0.0,0.0,22,0.00,,,0.00,Wunderground v.1.15,2009-09-25 08:55:00,
2009-09-25 01:58:00,75.4,33.9,29.87,SW,215,0.0,0.0,22,0.00,,,0.00,Wunderground v.1.15,2009-09-25 08:58:00,
2009-09-25 02:01:00,75.4,33.9,29.87,SW,215,0.0,0.0,22,0.00,,,0.00,Wunderground v.1.15,2009-09-25 09:01:00,
2009-09-25 02:03:00,75.2,33.7,29.87,SW,214,0.0,0.0,22,0.00,,,0.00,Wunderground v.1.15,2009-09-25 09:03:00,
2009-09-25 02:06:00,75.2,32.6,29.87,SW,214,0.0,0.0,21,0.00,,,0.00,Wunderground v.1.15,2009-09-25 09:06:00,
2009-09-25 02:08:00,75.4,32.7,29.87,SW,214,0.0,0.0,21,0.00,,,0.00,Wunderground v.1.15,2009-09-25 09:08:00,
2009-09-25 02:11:00,75.5,31.6,29.87,SW,215,0.0,0.0,20,0.00,,,0.00,Wunderground v.1.15,2009-09-25 09:11:00,
2009-09-25 02:13:00,75.7,31.8,29.87,SW,215,0.0,1.0,20,0.00,,,0.00,Wunderground v.1.15,2009-09-25 09:13:00,
2009-09-25 02:16:00,75.7,31.8,29.87,SW,215,0.0,1.0,20,0.00,,,0.00,Wunderground v.1.15,2009-09-25 09:16:00,
2009-09-25 02:17:00,75.6,31.7,29.87,SW,215,0.0,1.0,20,0.00,,,0.00,Wunderground v.1.15,2009-09-25 09:17:00,
2009-09-25 02:19:00,75.5,31.6,29.87,SW,215,0.0,1.0,20,0.00,,,0.00,Wunderground v.1.15,2009-09-25 09:19:00,
2009-09-25 02:21:00,75.2,31.3,29.87,SW,215,0.0,0.0,20,0.00,,,0.00,Wunderground v.1.15,2009-09-25 09:21:00,
2009-09-25 02:22:00,75.2,31.3,29.87,SW,215,0.0,0.0,20,0.00,,,0.00,Wunderground v.1.15,2009-09-25 09:22:00,
2009-09-25 02:24:00,75.1,31.3,29.87,SW,215,0.0,0.0,20,0.00,,,0.00,Wunderground v.1.15,2009-09-25 09:24:00,
2009-09-25 02:26:00,75.2,31.3,29.87,SW,214,0.0,0.0,20,0.00,,,0.00,Wunderground v.1.15,2009-09-25 09:26:00,
2009-09-25 02:27:00,75.2,31.3,29.87,SW,214,0.0,0.0,20,0.00,,,0.00,Wunderground v.1.15,2009-09-25 09:27:00,
2009-09-25 02:29:00,75.1,31.3,29.87,SW,214,0.0,0.0,20,0.00,,,0.00,Wunderground v.1.15,2009-09-25 09:29:00,
2009-09-25 02:31:00,74.9,31.1,29.87,SW,215,0.0,0.0,20,0.00,,,0.00,Wunderground v.1.15,2009-09-25 09:31:00,
2009-09-25 02:32:00,74.8,31.0,29.87,SW,215,0.0,0.0,20,0.00,,,0.00,Wunderground v.1.15,2009-09-25 09:32:00,
2009-09-25 02:34:00,74.6,32.1,29.86,SW,215,0.0,0.0,21,0.00,,,0.00,Wunderground v.1.15,2009-09-25 09:34:00,
2009-09-25 02:36:00,74.2,30.5,29.87,SW,215,0.0,0.0,20,0.00,,,0.00,Wunderground v.1.15,2009-09-25 09:36:00,
2009-09-25 02:37:00,74.1,30.4,29.87,SW,215,0.0,0.0,20,0.00,,,0.00,Wunderground v.1.15,2009-09-25 09:37:00,
2009-09-25 02:39:00,73.8,30.2,29.87,SW,215,0.0,0.0,20,0.00,,,0.00,Wunderground v.1.15,2009-09-25 09:39:00,
2009-09-25 02:41:00,73.4,31.1,29.87,SW,214,0.0,0.0,21,0.00,,,0.00,Wunderground v.1.15,2009-09-25 09:41:00,
2009-09-25 02:42:00,73.4,31.1,29.87,SW,214,0.0,0.0,21,0.00,,,0.00,Wunderground v.1.15,2009-09-25 09:42:00,
2009-09-25 02:44:00,73.1,30.8,29.87,SW,214,0.0,0.0,21,0.00,,,0.00,Wunderground v.1.15,2009-09-25 09:44:00,
2009-09-25 02:47:00,73.1,29.6,29.86,SW,214,0.0,0.0,20,0.00,,,0.00,Wunderground v.1.15,2009-09-25 09:47:00,
2009-09-25 02:48:00,73.3,29.8,29.87,SW,215,0.0,0.0,20,0.00,,,0.00,Wunderground v.1.15,2009-09-25 09:48:00,
2009-09-25 02:50:00,73.5,29.9,29.87,SW,215,0.0,0.0,20,0.00,,,0.00,Wunderground v.1.15,2009-09-25 09:50:00,
2009-09-25 02:52:00,73.9,29.0,29.87,SW,214,0.0,0.0,19,0.00,,,0.00,Wunderground v.1.15,2009-09-25 09:52:00,
2009-09-25 02:53:00,74.0,30.4,29.87,SW,214,0.0,0.0,20,0.00,,,0.00,Wunderground v.1.15,2009-09-25 09:53:00,
2009-09-25 02:55:00,74.4,29.4,29.87,SW,215,0.0,0.0,19,0.00,,,0.00,Wunderground v.1.15,2009-09-25 09:55:00,
2009-09-25 02:57:00,74.8,29.8,29.87,SW,215,0.0,0.0,19,0.00,,,0.00,Wunderground v.1.15,2009-09-25 09:57:00,
2009-09-25 02:58:00,74.9,29.8,29.87,SW,215,0.0,0.0,19,0.00,,,0.00,Wunderground v.1.15,2009-09-25 09:58:00,
2009-09-25 03:00:00,75.1,30.0,29.87,SW,214,0.0,0.0,19,0.00,,,0.00,Wunderground v.1.15,2009-09-25 10:00:00,
2009-09-25 03:03:00,74.9,29.8,29.87,SW,214,0.0,0.0,19,0.00,,,0.00,Wunderground v.1.15,2009-09-25 10:03:00,
2009-09-25 03:05:00,74.8,29.8,29.87,SW,215,0.0,0.0,19,0.00,,,0.00,Wunderground v.1.15,2009-09-25 10:05:00,
2009-09-25 03:08:00,74.7,29.7,29.87,SW,215,0.0,0.0,19,0.00,,,0.00,Wunderground v.1.15,2009-09-25 10:08:00,
2009-09-25 03:10:00,74.7,29.7,29.87,SW,214,0.0,0.0,19,0.00,,,0.00,Wunderground v.1.15,2009-09-25 10:10:00,
2009-09-25 03:13:00,74.9,29.8,29.87,SW,214,0.0,0.0,19,0.00,,,0.00,Wunderground v.1.15,2009-09-25 10:13:00,
2009-09-25 03:15:00,74.9,29.8,29.87,SW,215,0.0,0.0,19,0.00,,,0.00,Wunderground v.1.15,2009-09-25 10:15:00,
2009-09-25 03:18:00,75.0,29.9,29.87,SW,215,0.0,0.0,19,0.00,,,0.00,Wunderground v.1.15,2009-09-25 10:18:00,
2009-09-25 03:19:00,75.1,30.0,29.87,SW,214,0.0,0.0,19,0.00,,,0.00,Wunderground v.1.15,2009-09-25 10:19:00,
2009-09-25 03:20:00,75.1,30.0,29.87,SW,215,0.0,0.0,19,0.00,,,0.00,Wunderground v.1.15,2009-09-25 10:20:00,
2009-09-25 03:24:00,75.2,30.1,29.87,SW,215,0.0,0.0,19,0.00,,,0.00,Wunderground v.1.15,2009-09-25 10:24:00,
2009-09-25 03:26:00,75.0,29.9,29.87,SW,214,0.0,1.0,19,0.00,,,0.00,Wunderground v.1.15,2009-09-25 10:26:00,
2009-09-25 03:29:00,75.2,30.1,29.87,SW,215,0.0,1.0,19,0.00,,,0.00,Wunderground v.1.15,2009-09-25 10:29:00,
2009-09-25 03:31:00,75.3,31.4,29.87,SW,215,0.0,0.0,20,0.00,,,0.00,Wunderground v.1.15,2009-09-25 10:31:00,
2009-09-25 03:34:00,75.2,31.3,29.87,SW,214,0.0,0.0,20,0.00,,,0.00,Wunderground v.1.15,2009-09-25 10:34:00,
2009-09-25 03:37:00,75.2,30.1,29.87,SW,215,0.0,0.0,19,0.00,,,0.00,Wunderground v.1.15,2009-09-25 10:37:00,
2009-09-25 03:39:00,75.3,30.2,29.87,SW,215,0.0,0.0,19,0.00,,,0.00,Wunderground v.1.15,2009-09-25 10:39:00,
2009-09-25 03:40:00,75.3,30.2,29.87,SW,215,0.0,0.0,19,0.00,,,0.00,Wunderground v.1.15,2009-09-25 10:40:00,
2009-09-25 03:42:00,75.2,30.1,29.87,SW,215,0.0,0.0,19,0.00,,,0.00,Wunderground v.1.15,2009-09-25 10:42:00,
2009-09-25 03:44:00,75.0,29.9,29.87,SW,214,0.0,0.0,19,0.00,,,0.00,Wunderground v.1.15,2009-09-25 10:44:00,
2009-09-25 03:45:00,75.0,29.9,29.87,SW,215,0.0,0.0,19,0.00,,,0.00,Wunderground v.1.15,2009-09-25 10:45:00,
2009-09-25 03:47:00,74.9,29.8,29.87,SW,214,0.0,0.0,19,0.00,,,0.00,Wunderground v.1.15,2009-09-25 10:47:00,
2009-09-25 03:49:00,74.9,29.8,29.87,SW,214,0.0,0.0,19,0.00,,,0.00,Wunderground v.1.15,2009-09-25 10:49:00,
2009-09-25 03:51:00,74.9,29.8,29.87,SW,215,0.0,0.0,19,0.00,,,0.00,Wunderground v.1.15,2009-09-25 10:51:00,
2009-09-25 03:52:00,74.8,29.8,29.87,SW,214,0.0,0.0,19,0.00,,,0.00,Wunderground v.1.15,2009-09-25 10:52:00,
2009-09-25 03:54:00,74.8,29.8,29.87,SW,215,0.0,0.0,19,0.00,,,0.00,Wunderground v.1.15,2009-09-25 10:54:00,
2009-09-25 03:56:00,74.7,29.7,29.87,SW,215,0.0,1.0,19,0.00,,,0.00,Wunderground v.1.15,2009-09-25 10:56:00,
2009-09-25 03:58:00,74.7,29.7,29.87,SW,215,0.0,1.0,19,0.00,,,0.00,Wunderground v.1.15,2009-09-25 10:58:00,
2009-09-25 03:59:00,74.7,30.9,29.87,SW,214,0.0,1.0,20,0.00,,,0.00,Wunderground v.1.15,2009-09-25 10:59:00,
2009-09-25 04:00:00,74.7,30.9,29.87,SW,214,0.0,0.0,20,0.00,,,0.00,Wunderground v.1.15,2009-09-25 11:00:00,
2009-09-25 04:01:00,74.7,30.9,29.87,SW,215,0.0,0.0,20,0.00,,,0.00,Wunderground v.1.15,2009-09-25 11:01:00,
2009-09-25 04:03:00,74.7,29.7,29.87,SW,215,0.0,0.0,19,0.00,,,0.00,Wunderground v.1.15,2009-09-25 11:03:00,
2009-09-25 04:04:00,74.8,29.8,29.87,SW,214,0.0,0.0,19,0.00,,,0.00,Wunderground v.1.15,2009-09-25 11:04:00,
2009-09-25 04:05:00,74.8,29.8,29.87,SW,215,0.0,0.0,19,0.00,,,0.00,Wunderground v.1.15,2009-09-25 11:05:00,
2009-09-25 04:06:00,74.9,29.8,29.87,SW,215,0.0,0.0,19,0.00,,,0.00,Wunderground v.1.15,2009-09-25 11:06:00,
2009-09-25 04:08:00,74.9,29.8,29.87,SW,215,0.0,0.0,19,0.00,,,0.00,Wunderground v.1.15,2009-09-25 11:08:00,
2009-09-25 04:09:00,74.9,29.8,29.87,SW,215,0.0,0.0,19,0.00,,,0.00,Wunderground v.1.15,2009-09-25 11:09:00,
2009-09-25 04:10:00,74.9,29.8,29.87,SW,214,0.0,0.0,19,0.00,,,0.00,Wunderground v.1.15,2009-09-25 11:10:00,
2009-09-25 04:11:00,74.9,29.8,29.87,SW,215,0.0,0.0,19,0.00,,,0.00,Wunderground v.1.15,2009-09-25 11:11:00,
2009-09-25 04:14:00,75.0,29.9,29.87,SW,215,0.0,0.0,19,0.00,,,0.00,Wunderground v.1.15,2009-09-25 11:14:00,
2009-09-25 04:15:00,75.0,29.9,29.87,SW,215,0.0,0.0,19,0.00,,,0.00,Wunderground v.1.15,2009-09-25 11:15:00,
2009-09-25 04:17:00,74.9,29.8,29.87,SW,215,0.0,0.0,19,0.00,,,0.00,Wunderground v.1.15,2009-09-25 11:17:00,
2009-09-25 04:19:00,74.9,29.8,29.87,SW,214,0.0,0.0,19,0.00,,,0.00,Wunderground v.1.15,2009-09-25 11:19:00,
2009-09-25 04:20:00,75.0,29.9,29.87,SW,214,0.0,0.0,19,0.00,,,0.00,Wunderground v.1.15,2009-09-25 11:20:00,
2009-09-25 04:22:00,75.1,28.7,29.87,SW,215,0.0,0.0,18,0.00,,,0.00,Wunderground v.1.15,2009-09-25 11:22:00,
2009-09-25 04:24:00,75.1,28.7,29.87,SW,215,0.0,0.0,18,0.00,,,0.00,Wunderground v.1.15,2009-09-25 11:24:00,
2009-09-25 04:25:00,75.2,28.8,29.87,SW,215,0.0,0.0,18,0.00,,,0.00,Wunderground v.1.15,2009-09-25 11:25:00,
2009-09-25 04:26:00,75.2,28.8,29.87,SW,214,0.0,0.0,18,0.00,,,0.00,Wunderground v.1.15,2009-09-25 11:26:00,
2009-09-25 04:27:00,75.2,28.8,29.87,SW,214,0.0,0.0,18,0.00,,,0.00,Wunderground v.1.15,2009-09-25 11:27:00,
2009-09-25 04:29:00,75.2,28.8,29.87,SW,214,0.0,0.0,18,0.00,,,0.00,Wunderground v.1.15,2009-09-25 11:29:00,
2009-09-25 04:30:00,75.3,28.8,29.87,SW,215,0.0,0.0,18,0.00,,,0.00,Wunderground v.1.15,2009-09-25 11:30:00,
2009-09-25 04:31:00,75.4,28.9,29.87,SW,215,0.0,0.0,18,0.00,,,0.00,Wunderground v.1.15,2009-09-25 11:31:00,
2009-09-25 04:32:00,75.3,28.8,29.87,SW,214,0.0,0.0,18,0.00,,,0.00,Wunderground v.1.15,2009-09-25 11:32:00,
2009-09-25 04:34:00,75.5,29.0,29.87,SW,215,0.0,0.0,18,0.00,,,0.00,Wunderground v.1.15,2009-09-25 11:34:00,
2009-09-25 04:35:00,75.5,29.0,29.87,SW,215,0.0,0.0,18,0.00,,,0.00,Wunderground v.1.15,2009-09-25 11:35:00,
2009-09-25 04:37:00,75.7,29.2,29.87,SW,215,0.0,0.0,18,0.00,,,0.00,Wunderground v.1.15,2009-09-25 11:37:00,
2009-09-25 04:38:00,75.7,29.2,29.87,SW,215,0.0,0.0,18,0.00,,,0.00,Wunderground v.1.15,2009-09-25 11:38:00,
2009-09-25 04:39:00,75.8,29.2,29.87,SW,214,0.0,0.0,18,0.00,,,0.00,Wunderground v.1.15,2009-09-25 11:39:00,
2009-09-25 04:40:00,75.9,29.3,29.87,SW,215,0.0,0.0,18,0.00,,,0.00,Wunderground v.1.15,2009-09-25 11:40:00,
2009-09-25 04:42:00,75.9,29.3,29.87,SW,215,0.0,0.0,18,0.00,,,0.00,Wunderground v.1.15,2009-09-25 11:42:00,
2009-09-25 04:43:00,75.9,29.3,29.87,SW,215,0.0,0.0,18,0.00,,,0.00,Wunderground v.1.15,2009-09-25 11:43:00,
2009-09-25 04:44:00,75.8,29.2,29.87,SW,214,0.0,0.0,18,0.00,,,0.00,Wunderground v.1.15,2009-09-25 11:44:00,
2009-09-25 04:45:00,75.7,29.2,29.87,SW,214,0.0,0.0,18,0.00,,,0.00,Wunderground v.1.15,2009-09-25 11:45:00,
2009-09-25 04:47:00,75.7,29.2,29.87,SW,215,0.0,0.0,18,0.00,,,0.00,Wunderground v.1.15,2009-09-25 11:47:00,
2009-09-25 04:48:00,75.8,29.2,29.87,SW,214,0.0,0.0,18,0.00,,,0.00,Wunderground v.1.15,2009-09-25 11:48:00,
2009-09-25 04:50:00,76.0,29.4,29.87,SW,214,0.0,0.0,18,0.00,,,0.00,Wunderground v.1.15,2009-09-25 11:50:00,
2009-09-25 04:52:00,75.9,29.3,29.87,SW,215,0.0,0.0,18,0.00,,,0.00,Wunderground v.1.15,2009-09-25 11:52:00,
2009-09-25 04:53:00,75.9,29.3,29.87,SW,215,0.0,0.0,18,0.00,,,0.00,Wunderground v.1.15,2009-09-25 11:53:00,
2009-09-25 04:55:00,75.7,29.2,29.87,SW,215,0.0,0.0,18,0.00,,,0.00,Wunderground v.1.15,2009-09-25 11:55:00,
2009-09-25 04:56:00,75.7,30.5,29.87,SW,215,0.0,0.0,19,0.00,,,0.00,Wunderground v.1.15,2009-09-25 11:56:00,
2009-09-25 04:58:00,75.6,30.4,29.87,SW,215,0.0,0.0,19,0.00,,,0.00,Wunderground v.1.15,2009-09-25 11:58:00,
2009-09-25 05:00:00,75.6,30.4,29.87,SW,214,0.0,0.0,19,0.00,,,0.00,Wunderground v.1.15,2009-09-25 12:00:00,
2009-09-25 05:01:00,75.6,30.4,29.87,SW,215,0.0,0.0,19,0.00,,,0.00,Wunderground v.1.15,2009-09-25 12:01:00,
2009-09-25 05:03:00,75.7,30.5,29.87,SW,214,0.0,0.0,19,0.00,,,0.00,Wunderground v.1.15,2009-09-25 12:03:00,
2009-09-25 05:04:00,75.9,30.7,29.87,SW,214,0.0,0.0,19,0.00,,,0.00,Wunderground v.1.15,2009-09-25 12:04:00,
2009-09-25 05:05:00,76.3,31.0,29.87,SW,215,0.0,0.0,19,0.00,,,0.00,Wunderground v.1.15,2009-09-25 12:05:00,
2009-09-25 05:06:00,76.4,31.1,29.87,SW,215,0.0,0.0,19,0.00,,,0.00,Wunderground v.1.15,2009-09-25 12:06:00,
2009-09-25 05:08:00,76.5,31.1,29.87,SW,214,0.0,0.0,19,0.00,,,0.00,Wunderground v.1.15,2009-09-25 12:08:00,
2009-09-25 05:09:00,76.5,31.1,29.87,SW,215,0.0,0.0,19,0.00,,,0.00,Wunderground v.1.15,2009-09-25 12:09:00,
2009-09-25 05:10:00,76.7,30.0,29.87,SW,215,0.0,0.0,18,0.00,,,0.00,Wunderground v.1.15,2009-09-25 12:10:00,
2009-09-25 05:12:00,76.8,30.1,29.87,SW,214,0.0,0.0,18,0.00,,,0.00,Wunderground v.1.15,2009-09-25 12:12:00,
2009-09-25 05:14:00,76.7,31.3,29.87,SW,215,0.0,0.0,19,0.00,,,0.00,Wunderground v.1.15,2009-09-25 12:14:00,
2009-09-25 05:15:00,76.6,31.2,29.87,SW,215,0.0,1.0,19,0.00,,,0.00,Wunderground v.1.15,2009-09-25 12:15:00,
2009-09-25 05:17:00,76.5,31.1,29.87,SW,215,0.0,1.0,19,0.00,,,0.00,Wunderground v.1.15,2009-09-25 12:17:00,
2009-09-25 05:19:00,76.4,31.1,29.87,SW,215,0.0,1.0,19,0.00,,,0.00,Wunderground v.1.15,2009-09-25 12:19:00,
2009-09-25 05:21:00,76.6,31.2,29.87,SW,214,0.0,0.0,19,0.00,,,0.00,Wunderground v.1.15,2009-09-25 12:21:00,
2009-09-25 05:22:00,76.7,30.0,29.87,SW,214,0.0,0.0,18,0.00,,,0.00,Wunderground v.1.15,2009-09-25 12:22:00,
2009-09-25 05:24:00,76.8,30.1,29.87,SW,215,0.0,0.0,18,0.00,,,0.00,Wunderground v.1.15,2009-09-25 12:24:00,
2009-09-25 05:26:00,76.7,30.0,29.87,SW,214,0.0,0.0,18,0.00,,,0.00,Wunderground v.1.15,2009-09-25 12:26:00,
2009-09-25 05:27:00,76.7,30.0,29.87,SW,214,0.0,0.0,18,0.00,,,0.00,Wunderground v.1.15,2009-09-25 12:27:00,
2009-09-25 05:29:00,76.5,29.8,29.87,SW,215,1.0,1.0,18,0.00,,,0.00,Wunderground v.1.15,2009-09-25 12:29:00,
2009-09-25 05:31:00,76.5,29.8,29.87,SW,214,0.0,0.0,18,0.00,,,0.00,Wunderground v.1.15,2009-09-25 12:31:00,
2009-09-25 05:32:00,76.6,29.9,29.87,SW,214,0.0,0.0,18,0.00,,,0.00,Wunderground v.1.15,2009-09-25 12:32:00,
2009-09-25 05:34:00,76.5,29.8,29.87,SW,214,0.0,0.0,18,0.00,,,0.00,Wunderground v.1.15,2009-09-25 12:34:00,
2009-09-25 05:35:00,76.6,29.9,29.87,SW,214,0.0,0.0,18,0.00,,,0.00,Wunderground v.1.15,2009-09-25 12:35:00,
2009-09-25 05:36:00,76.6,29.9,29.87,SW,215,0.0,0.0,18,0.00,,,0.00,Wunderground v.1.15,2009-09-25 12:36:00,
2009-09-25 05:38:00,76.5,29.8,29.87,SW,215,0.0,0.0,18,0.00,,,0.00,Wunderground v.1.15,2009-09-25 12:38:00,
2009-09-25 05:40:00,76.3,29.7,29.87,SW,215,0.0,0.0,18,0.00,,,0.00,Wunderground v.1.15,2009-09-25 12:40:00,
2009-09-25 05:41:00,76.0,29.4,29.87,SW,215,0.0,0.0,18,0.00,,,0.00,Wunderground v.1.15,2009-09-25 12:41:00,
2009-09-25 05:43:00,75.6,30.4,29.87,SW,215,0.0,0.0,19,0.00,,,0.00,Wunderground v.1.15,2009-09-25 12:43:00,
2009-09-25 05:45:00,75.4,30.2,29.87,SW,215,0.0,0.0,19,0.00,,,0.00,Wunderground v.1.15,2009-09-25 12:45:00,
2009-09-25 05:46:00,75.1,30.0,29.87,SW,215,0.0,0.0,19,0.00,,,0.00,Wunderground v.1.15,2009-09-25 12:46:00,
2009-09-25 05:48:00,74.9,31.1,29.87,SW,214,0.0,0.0,20,0.00,,,0.00,Wunderground v.1.15,2009-09-25 12:48:00,
2009-09-25 05:50:00,74.8,31.0,29.87,SW,215,0.0,0.0,20,0.00,,,0.00,Wunderground v.1.15,2009-09-25 12:50:00,
2009-09-25 05:52:00,74.7,30.9,29.87,SW,215,0.0,0.0,20,0.00,,,0.00,Wunderground v.1.15,2009-09-25 12:52:00,
2009-09-25 05:54:00,74.7,29.7,29.87,SW,214,0.0,0.0,19,0.00,,,0.00,Wunderground v.1.15,2009-09-25 12:54:00,
2009-09-25 05:55:00,74.8,31.0,29.87,SW,215,0.0,0.0,20,0.00,,,0.00,Wunderground v.1.15,2009-09-25 12:55:00,
2009-09-25 05:57:00,74.7,29.7,29.88,SW,215,0.0,0.0,19,0.00,,,0.00,Wunderground v.1.15,2009-09-25 12:57:00,
2009-09-25 05:59:00,74.5,29.5,29.88,SW,215,0.0,0.0,19,0.00,,,0.00,Wunderground v.1.15,2009-09-25 12:59:00,
2009-09-25 06:00:00,74.5,29.5,29.88,SW,215,0.0,0.0,19,0.00,,,0.00,Wunderground v.1.15,2009-09-25 13:00:00,
2009-09-25 06:01:00,74.5,29.5,29.88,SW,215,0.0,0.0,19,0.00,,,0.00,Wunderground v.1.15,2009-09-25 13:01:00,
2009-09-25 06:02:00,74.5,30.8,29.88,SW,215,0.0,0.0,20,0.00,,,0.00,Wunderground v.1.15,2009-09-25 13:02:00,
2009-09-25 06:04:00,74.2,30.5,29.88,SW,215,0.0,0.0,20,0.00,,,0.00,Wunderground v.1.15,2009-09-25 13:04:00,
2009-09-25 06:06:00,74.1,30.4,29.88,SW,215,0.0,0.0,20,0.00,,,0.00,Wunderground v.1.15,2009-09-25 13:06:00,
2009-09-25 06:07:00,74.0,30.4,29.88,SW,215,0.0,0.0,20,0.00,,,0.00,Wunderground v.1.15,2009-09-25 13:07:00,
2009-09-25 06:10:00,73.8,30.2,29.88,SW,214,0.0,0.0,20,0.00,,,0.00,Wunderground v.1.15,2009-09-25 13:10:00,
2009-09-25 06:11:00,73.8,30.2,29.88,SW,215,0.0,0.0,20,0.00,,,0.00,Wunderground v.1.15,2009-09-25 13:11:00,
2009-09-25 06:12:00,73.8,30.2,29.88,SW,215,0.0,0.0,20,0.00,,,0.00,Wunderground v.1.15,2009-09-25 13:12:00,
2009-09-25 06:15:00,73.8,30.2,29.88,SW,215,0.0,1.0,20,0.00,,,0.00,Wunderground v.1.15,2009-09-25 13:15:00,
2009-09-25 06:16:00,73.8,30.2,29.88,SW,215,0.0,1.0,20,0.00,,,0.00,Wunderground v.1.15,2009-09-25 13:16:00,
2009-09-25 06:17:00,73.8,30.2,29.88,SW,215,0.0,1.0,20,0.00,,,0.00,Wunderground v.1.15,2009-09-25 13:17:00,
2009-09-25 06:20:00,73.9,30.3,29.88,SW,215,0.0,0.0,20,0.00,,,0.00,Wunderground v.1.15,2009-09-25 13:20:00,
2009-09-25 06:21:00,73.9,30.3,29.88,SW,214,0.0,0.0,20,0.00,,,0.00,Wunderground v.1.15,2009-09-25 13:21:00,
2009-09-25 06:22:00,73.9,30.3,29.88,SW,214,0.0,0.0,20,0.00,,,0.00,Wunderground v.1.15,2009-09-25 13:22:00,
2009-09-25 06:25:00,73.9,30.3,29.88,SW,215,0.0,0.0,20,0.00,,,0.00,Wunderground v.1.15,2009-09-25 13:25:00,
2009-09-25 06:27:00,73.8,31.4,29.88,SW,214,0.0,0.0,21,0.00,,,0.00,Wunderground v.1.15,2009-09-25 13:27:00,
2009-09-25 06:31:00,73.4,31.1,29.88,SW,215,0.0,0.0,21,0.00,,,0.00,Wunderground v.1.15,2009-09-25 13:31:00,
2009-09-25 06:32:00,73.2,30.9,29.88,SW,214,0.0,0.0,21,0.00,,,0.00,Wunderground v.1.15,2009-09-25 13:32:00,
2009-09-25 06:36:00,73.1,30.8,29.89,SW,215,0.0,0.0,21,0.00,,,0.00,Wunderground v.1.15,2009-09-25 13:36:00,
2009-09-25 06:37:00,73.0,31.9,29.89,SW,214,0.0,0.0,22,0.00,,,0.00,Wunderground v.1.15,2009-09-25 13:37:00,
2009-09-25 06:38:00,73.0,30.7,29.89,SW,215,0.0,0.0,21,0.00,,,0.00,Wunderground v.1.15,2009-09-25 13:38:00,
2009-09-25 06:41:00,72.9,31.8,29.89,SW,215,0.0,0.0,22,0.00,,,0.00,Wunderground v.1.15,2009-09-25 13:41:00,
2009-09-25 06:42:00,72.7,30.5,29.89,SW,215,0.0,0.0,21,0.00,,,0.00,Wunderground v.1.15,2009-09-25 13:42:00,
2009-09-25 06:43:00,72.7,30.5,29.89,SW,215,0.0,0.0,21,0.00,,,0.00,Wunderground v.1.15,2009-09-25 13:43:00,
2009-09-25 06:46:00,72.9,30.6,29.89,SW,214,0.0,0.0,21,0.00,,,0.00,Wunderground v.1.15,2009-09-25 13:46:00,
2009-09-25 06:48:00,73.1,29.6,29.89,SW,215,0.0,0.0,20,0.00,,,0.00,Wunderground v.1.15,2009-09-25 13:48:00,
2009-09-25 06:49:00,73.3,31.0,29.89,SW,214,0.0,0.0,21,0.00,,,0.00,Wunderground v.1.15,2009-09-25 13:49:00,
2009-09-25 06:51:00,73.5,31.1,29.89,SW,215,0.0,0.0,21,0.00,,,0.00,Wunderground v.1.15,2009-09-25 13:51:00,
2009-09-25 06:53:00,73.4,31.1,29.89,SW,215,0.0,0.0,21,0.00,,,0.00,Wunderground v.1.15,2009-09-25 13:53:00,
2009-09-25 06:54:00,73.3,31.0,29.89,SW,215,0.0,0.0,21,0.00,,,0.00,Wunderground v.1.15,2009-09-25 13:54:00,
2009-09-25 06:56:00,73.3,31.0,29.89,SW,214,0.0,0.0,21,0.00,,,0.00,Wunderground v.1.15,2009-09-25 13:56:00,
2009-09-25 06:58:00,73.2,30.9,29.89,SW,215,0.0,0.0,21,0.00,,,0.00,Wunderground v.1.15,2009-09-25 13:58:00,
2009-09-25 06:59:00,73.2,30.9,29.89,SW,214,0.0,0.0,21,0.00,,,0.00,Wunderground v.1.15,2009-09-25 13:59:00,
2009-09-25 07:01:00,73.3,31.0,29.89,SW,215,0.0,1.0,21,0.00,,,0.00,Wunderground v.1.15,2009-09-25 14:01:00,
2009-09-25 07:03:00,73.4,31.1,29.89,SW,214,0.0,1.0,21,0.00,,,0.00,Wunderground v.1.15,2009-09-25 14:03:00,
2009-09-25 07:04:00,73.5,31.1,29.89,SW,215,0.0,1.0,21,0.00,,,0.00,Wunderground v.1.15,2009-09-25 14:04:00,
2009-09-25 07:05:00,73.5,31.1,29.89,SW,215,0.0,1.0,21,0.00,,,0.00,Wunderground v.1.15,2009-09-25 14:05:00,
2009-09-25 07:06:00,73.5,31.1,29.89,SW,214,0.0,1.0,21,0.00,,,0.00,Wunderground v.1.15,2009-09-25 14:06:00,
2009-09-25 07:08:00,73.4,31.1,29.89,SW,214,0.0,1.0,21,0.00,,,0.00,Wunderground v.1.15,2009-09-25 14:08:00,
2009-09-25 07:10:00,73.4,31.1,29.89,SW,215,0.0,0.0,21,0.00,,,0.00,Wunderground v.1.15,2009-09-25 14:10:00,
2009-09-25 07:11:00,73.5,31.1,29.89,SW,215,0.0,0.0,21,0.00,,,0.00,Wunderground v.1.15,2009-09-25 14:11:00,
2009-09-25 07:13:00,73.7,31.3,29.89,SW,215,0.0,0.0,21,0.00,,,0.00,Wunderground v.1.15,2009-09-25 14:13:00,
2009-09-25 07:15:00,74.0,31.6,29.89,SW,215,0.0,0.0,21,0.00,,,0.00,Wunderground v.1.15,2009-09-25 14:15:00,
2009-09-25 07:16:00,74.1,32.8,29.89,SW,214,0.0,0.0,22,0.00,,,0.00,Wunderground v.1.15,2009-09-25 14:16:00,
2009-09-25 07:18:00,73.9,31.5,29.89,SW,214,0.0,0.0,21,0.00,,,0.00,Wunderground v.1.15,2009-09-25 14:18:00,
2009-09-25 07:20:00,73.9,31.5,29.90,SW,215,0.0,0.0,21,0.00,,,0.00,Wunderground v.1.15,2009-09-25 14:20:00,
2009-09-25 07:21:00,73.9,31.5,29.90,SW,215,0.0,0.0,21,0.00,,,0.00,Wunderground v.1.15,2009-09-25 14:21:00,
2009-09-25 07:22:00,73.9,31.5,29.90,SW,214,0.0,0.0,21,0.00,,,0.00,Wunderground v.1.15,2009-09-25 14:22:00,
2009-09-25 07:23:00,73.9,31.5,29.90,SW,215,0.0,0.0,21,0.00,,,0.00,Wunderground v.1.15,2009-09-25 14:23:00,
2009-09-25 07:25:00,73.8,31.4,29.90,SW,214,0.0,0.0,21,0.00,,,0.00,Wunderground v.1.15,2009-09-25 14:25:00,
2009-09-25 07:26:00,73.8,31.4,29.90,SW,215,0.0,0.0,21,0.00,,,0.00,Wunderground v.1.15,2009-09-25 14:26:00,
2009-09-25 07:27:00,73.7,31.3,29.90,SW,214,0.0,0.0,21,0.00,,,0.00,Wunderground v.1.15,2009-09-25 14:27:00,
2009-09-25 07:28:00,73.7,31.3,29.90,SW,214,0.0,0.0,21,0.00,,,0.00,Wunderground v.1.15,2009-09-25 14:28:00,
2009-09-25 07:30:00,73.6,32.4,29.90,SW,215,0.0,0.0,22,0.00,,,0.00,Wunderground v.1.15,2009-09-25 14:30:00,
2009-09-25 07:31:00,73.6,32.4,29.90,SW,215,0.0,0.0,22,0.00,,,0.00,Wunderground v.1.15,2009-09-25 14:31:00,
2009-09-25 07:33:00,73.6,32.4,29.90,SW,215,0.0,0.0,22,0.00,,,0.00,Wunderground v.1.15,2009-09-25 14:33:00,
2009-09-25 07:36:00,73.5,32.3,29.90,SW,215,0.0,0.0,22,0.00,,,0.00,Wunderground v.1.15,2009-09-25 14:36:00,
2009-09-25 07:37:00,73.6,32.4,29.90,SW,215,0.0,0.0,22,0.00,,,0.00,Wunderground v.1.15,2009-09-25 14:37:00,
2009-09-25 07:38:00,73.6,32.4,29.90,SW,214,0.0,0.0,22,0.00,,,0.00,Wunderground v.1.15,2009-09-25 14:38:00,
2009-09-25 07:41:00,73.8,32.6,29.90,SW,215,0.0,1.0,22,0.00,,,0.00,Wunderground v.1.15,2009-09-25 14:41:00,
2009-09-25 07:42:00,73.9,32.6,29.90,SW,215,0.0,1.0,22,0.00,,,0.00,Wunderground v.1.15,2009-09-25 14:42:00,
2009-09-25 07:43:00,74.0,31.6,29.90,SW,215,0.0,1.0,21,0.00,,,0.00,Wunderground v.1.15,2009-09-25 14:43:00,
2009-09-25 07:44:00,74.1,31.6,29.90,SW,214,0.0,1.0,21,0.00,,,0.00,Wunderground v.1.15,2009-09-25 14:44:00,
2009-09-25 07:46:00,74.5,32.0,29.90,SW,215,0.0,1.0,21,0.00,,,0.00,Wunderground v.1.15,2009-09-25 14:46:00,
2009-09-25 07:47:00,74.8,32.2,29.90,SW,214,0.0,1.0,21,0.00,,,0.00,Wunderground v.1.15,2009-09-25 14:47:00,
2009-09-25 07:48:00,74.9,33.5,29.90,SW,215,0.0,1.0,22,0.00,,,0.00,Wunderground v.1.15,2009-09-25 14:48:00,
2009-09-25 07:49:00,74.9,33.5,29.91,SW,215,0.0,1.0,22,0.00,,,0.00,Wunderground v.1.15,2009-09-25 14:49:00,
2009-09-25 07:51:00,75.1,32.5,29.91,SW,215,0.0,0.0,21,0.00,,,0.00,Wunderground v.1.15,2009-09-25 14:51:00,
2009-09-25 07:53:00,75.3,33.8,29.91,SW,215,0.0,0.0,22,0.00,,,0.00,Wunderground v.1.15,2009-09-25 14:53:00,
2009-09-25 07:54:00,75.3,33.8,29.91,SW,215,0.0,0.0,22,0.00,,,0.00,Wunderground v.1.15,2009-09-25 14:54:00,
2009-09-25 07:56:00,75.4,33.9,29.91,SW,215,0.0,0.0,22,0.00,,,0.00,Wunderground v.1.15,2009-09-25 14:56:00,
2009-09-25 07:58:00,75.5,34.0,29.91,SW,214,0.0,1.0,22,0.00,,,0.00,Wunderground v.1.15,2009-09-25 14:58:00,
2009-09-25 07:59:00,75.5,34.0,29.91,SW,214,0.0,1.0,22,0.00,,,0.00,Wunderground v.1.15,2009-09-25 14:59:00,
2009-09-25 08:01:00,74.9,32.3,29.91,SW,214,0.0,0.0,21,0.00,,,0.00,Wunderground v.1.15,2009-09-25 15:01:00,
2009-09-25 08:04:00,74.2,32.9,29.91,SW,215,0.0,0.0,22,0.00,,,0.00,Wunderground v.1.15,2009-09-25 15:04:00,
2009-09-25 08:06:00,73.6,33.5,29.91,SW,215,0.0,0.0,23,0.00,,,0.00,Wunderground v.1.15,2009-09-25 15:06:00,
2009-09-25 08:09:00,73.1,33.1,29.91,SW,214,0.0,0.0,23,0.00,,,0.00,Wunderground v.1.15,2009-09-25 15:09:00,
2009-09-25 08:10:00,73.0,31.9,29.91,SW,214,0.0,0.0,22,0.00,,,0.00,Wunderground v.1.15,2009-09-25 15:10:00,
2009-09-25 08:11:00,73.0,33.0,29.91,SW,214,0.0,0.0,23,0.00,,,0.00,Wunderground v.1.15,2009-09-25 15:11:00,
2009-09-25 08:15:00,72.7,32.7,29.91,SW,214,0.0,0.0,23,0.00,,,0.00,Wunderground v.1.15,2009-09-25 15:15:00,
2009-09-25 08:17:00,72.6,33.7,29.91,SW,215,0.0,0.0,24,0.00,,,0.00,Wunderground v.1.15,2009-09-25 15:17:00,
2009-09-25 08:20:00,73.0,35.1,29.91,SW,215,0.0,0.0,25,0.00,,,0.00,Wunderground v.1.15,2009-09-25 15:20:00,
2009-09-25 08:21:00,73.2,34.2,29.91,SW,215,0.0,0.0,24,0.00,,,0.00,Wunderground v.1.15,2009-09-25 15:21:00,
2009-09-25 08:22:00,73.4,34.4,29.91,SW,215,0.0,0.0,24,0.00,,,0.00,Wunderground v.1.15,2009-09-25 15:22:00,
2009-09-25 08:25:00,74.4,34.2,29.91,SW,215,0.0,1.0,23,0.00,,,0.00,Wunderground v.1.15,2009-09-25 15:25:00,
2009-09-25 08:26:00,74.7,34.4,29.91,SW,214,0.0,1.0,23,0.00,,,0.00,Wunderground v.1.15,2009-09-25 15:26:00,
2009-09-25 08:27:00,74.7,34.4,29.91,SW,214,0.0,1.0,23,0.00,,,0.00,Wunderground v.1.15,2009-09-25 15:27:00,
2009-09-25 08:30:00,75.2,34.8,29.91,ENE,64,0.0,0.0,23,0.00,,,0.00,Wunderground v.1.15,2009-09-25 15:30:00,
2009-09-25 08:31:00,75.3,34.9,29.91,ENE,65,0.0,1.0,23,0.00,,,0.00,Wunderground v.1.15,2009-09-25 15:31:00,
2009-09-25 08:32:00,75.2,33.7,29.91,ENE,65,0.0,1.0,22,0.00,,,0.00,Wunderground v.1.15,2009-09-25 15:32:00,
2009-09-25 08:35:00,74.4,33.1,29.91,ENE,65,0.0,1.0,22,0.00,,,0.00,Wunderground v.1.15,2009-09-25 15:35:00,
2009-09-25 08:36:00,74.1,32.8,29.91,ENE,65,0.0,1.0,22,0.00,,,0.00,Wunderground v.1.15,2009-09-25 15:36:00,
2009-09-25 08:38:00,73.9,32.6,29.91,ENE,64,0.0,1.0,22,0.00,,,0.00,Wunderground v.1.15,2009-09-25 15:38:00,
2009-09-25 08:40:00,73.6,32.4,29.91,ENE,65,0.0,0.0,22,0.00,,,0.00,Wunderground v.1.15,2009-09-25 15:40:00,
2009-09-25 08:41:00,73.6,33.5,29.91,ENE,65,0.0,0.0,23,0.00,,,0.00,Wunderground v.1.15,2009-09-25 15:41:00,
2009-09-25 08:43:00,74.0,36.9,29.91,ENE,65,0.0,1.0,26,0.00,,,0.00,Wunderground v.1.15,2009-09-25 15:43:00,
2009-09-25 08:45:00,74.6,37.4,29.91,ENE,64,0.0,1.0,26,0.00,,,0.00,Wunderground v.1.15,2009-09-25 15:45:00,
2009-09-25 08:46:00,74.7,37.5,29.91,ENE,65,0.0,1.0,26,0.00,,,0.00,Wunderground v.1.15,2009-09-25 15:46:00,
2009-09-25 08:47:00,74.9,37.7,29.91,ENE,65,0.0,1.0,26,0.00,,,0.00,Wunderground v.1.15,2009-09-25 15:47:00,
2009-09-25 08:49:00,75.1,37.9,29.91,ENE,64,0.0,1.0,26,0.00,,,0.00,Wunderground v.1.15,2009-09-25 15:49:00,
2009-09-25 08:51:00,75.3,38.0,29.91,ENE,65,1.0,2.0,26,0.00,,,0.00,Wunderground v.1.15,2009-09-25 15:51:00,
2009-09-25 08:52:00,75.4,38.1,29.91,ENE,65,0.0,2.0,26,0.00,,,0.00,Wunderground v.1.15,2009-09-25 15:52:00,
2009-09-25 08:54:00,75.7,38.4,29.91,ENE,64,0.0,2.0,26,0.00,,,0.00,Wunderground v.1.15,2009-09-25 15:54:00,
2009-09-25 08:56:00,75.9,36.5,29.91,ENE,65,0.0,2.0,24,0.00,,,0.00,Wunderground v.1.15,2009-09-25 15:56:00,
2009-09-25 08:57:00,76.0,37.6,29.91,ENE,65,0.0,2.0,25,0.00,,,0.00,Wunderground v.1.15,2009-09-25 15:57:00,
2009-09-25 08:59:00,76.2,36.8,29.91,ENE,64,0.0,3.0,24,0.00,,,0.00,Wunderground v.1.15,2009-09-25 15:59:00,
2009-09-25 09:02:00,76.7,37.2,29.91,ENE,65,0.0,1.0,24,0.00,,,0.00,Wunderground v.1.15,2009-09-25 16:02:00,
2009-09-25 09:03:00,76.9,36.3,29.91,ENE,65,0.0,1.0,23,0.00,,,0.00,Wunderground v.1.15,2009-09-25 16:03:00,
2009-09-25 09:04:00,77.2,37.6,29.91,ENE,65,0.0,1.0,24,0.00,,,0.00,Wunderground v.1.15,2009-09-25 16:04:00,
2009-09-25 09:07:00,77.3,37.7,29.91,ENE,64,0.0,1.0,24,0.00,,,0.00,Wunderground v.1.15,2009-09-25 16:07:00,
2009-09-25 09:08:00,77.5,37.8,29.91,ENE,64,1.0,1.0,24,0.00,,,0.00,Wunderground v.1.15,2009-09-25 16:08:00,
2009-09-25 09:10:00,77.6,36.8,29.91,ENE,65,0.0,0.0,23,0.00,,,0.00,Wunderground v.1.15,2009-09-25 16:10:00,
2009-09-25 09:12:00,77.5,37.8,29.91,ENE,64,0.0,0.0,24,0.00,,,0.00,Wunderground v.1.15,2009-09-25 16:12:00,
2009-09-25 09:13:00,77.5,38.9,29.91,ENE,65,0.0,0.0,25,0.00,,,0.00,Wunderground v.1.15,2009-09-25 16:13:00,
2009-09-25 09:16:00,76.5,39.0,29.91,ENE,65,0.0,0.0,26,0.00,,,0.00,Wunderground v.1.15,2009-09-25 16:16:00,
2009-09-25 09:17:00,75.9,38.5,29.91,ENE,65,0.0,1.0,26,0.00,,,0.00,Wunderground v.1.15,2009-09-25 16:17:00,
2009-09-25 09:18:00,75.8,38.5,29.91,ENE,65,0.0,1.0,26,0.00,,,0.00,Wunderground v.1.15,2009-09-25 16:18:00,
2009-09-25 09:21:00,75.3,38.0,29.91,ENE,65,0.0,1.0,26,0.00,,,0.00,Wunderground v.1.15,2009-09-25 16:21:00,
2009-09-25 09:23:00,75.2,37.9,29.91,ENE,61,0.0,1.0,26,0.00,,,0.00,Wunderground v.1.15,2009-09-25 16:23:00,
2009-09-25 09:24:00,75.2,38.9,29.91,ENE,60,0.0,1.0,27,0.00,,,0.00,Wunderground v.1.15,2009-09-25 16:24:00,
2009-09-25 09:26:00,75.1,38.8,29.92,ENE,61,0.0,1.0,27,0.00,,,0.00,Wunderground v.1.15,2009-09-25 16:26:00,
2009-09-25 09:28:00,75.1,38.8,29.92,ENE,61,0.0,1.0,27,0.00,,,0.00,Wunderground v.1.15,2009-09-25 16:28:00,
2009-09-25 09:29:00,75.1,38.8,29.91,ENE,60,0.0,1.0,27,0.00,,,0.00,Wunderground v.1.15,2009-09-25 16:29:00,
2009-09-25 09:31:00,75.7,38.4,29.92,ENE,65,2.0,3.0,26,0.00,,,0.00,Wunderground v.1.15,2009-09-25 16:31:00,
2009-09-25 09:33:00,76.3,37.9,29.92,ENE,71,0.0,4.0,25,0.00,,,0.00,Wunderground v.1.15,2009-09-25 16:33:00,
2009-09-25 09:35:00,77.3,39.7,29.92,ENE,71,1.0,4.0,26,0.00,,,0.00,Wunderground v.1.15,2009-09-25 16:35:00,
2009-09-25 09:37:00,77.6,39.0,29.92,ENE,71,0.0,4.0,25,0.00,,,0.00,Wunderground v.1.15,2009-09-25 16:37:00,
2009-09-25 09:38:00,77.6,39.0,29.92,ENE,71,0.0,4.0,25,0.00,,,0.00,Wunderground v.1.15,2009-09-25 16:38:00,
2009-09-25 09:40:00,76.9,40.4,29.92,ENE,71,0.0,1.0,27,0.00,,,0.00,Wunderground v.1.15,2009-09-25 16:40:00,
2009-09-25 09:42:00,76.3,40.8,29.92,ENE,71,0.0,1.0,28,0.00,,,0.00,Wunderground v.1.15,2009-09-25 16:42:00,
2009-09-25 09:43:00,76.0,40.5,29.92,ENE,71,0.0,1.0,28,0.00,,,0.00,Wunderground v.1.15,2009-09-25 16:43:00,
2009-09-25 09:44:00,75.8,40.4,29.92,ENE,71,0.0,1.0,28,0.00,,,0.00,Wunderground v.1.15,2009-09-25 16:44:00,
2009-09-25 09:45:00,75.3,40.8,29.92,ENE,71,0.0,1.0,29,0.00,,,0.00,Wunderground v.1.15,2009-09-25 16:45:00,
2009-09-25 09:47:00,75.0,40.6,29.92,ENE,71,0.0,1.0,29,0.00,,,0.00,Wunderground v.1.15,2009-09-25 16:47:00,
2009-09-25 09:48:00,75.0,40.6,29.92,ENE,71,0.0,1.0,29,0.00,,,0.00,Wunderground v.1.15,2009-09-25 16:48:00,
2009-09-25 09:49:00,74.9,40.5,29.92,ENE,71,0.0,1.0,29,0.00,,,0.00,Wunderground v.1.15,2009-09-25 16:49:00,
2009-09-25 09:51:00,75.1,40.7,29.92,ENE,71,0.0,1.0,29,0.00,,,0.00,Wunderground v.1.15,2009-09-25 16:51:00,
2009-09-25 09:53:00,75.3,40.8,29.92,NE,44,2.0,2.0,29,0.00,,,0.00,Wunderground v.1.15,2009-09-25 16:53:00,
2009-09-25 09:54:00,75.6,40.2,29.92,NE,55,0.0,2.0,28,0.00,,,0.00,Wunderground v.1.15,2009-09-25 16:54:00,
2009-09-25 09:56:00,76.8,37.3,29.93,NE,53,1.0,5.0,24,0.00,,,0.00,Wunderground v.1.15,2009-09-25 16:56:00,
2009-09-25 09:58:00,77.3,40.7,29.92,NE,53,1.0,5.0,27,0.00,,,0.00,Wunderground v.1.15,2009-09-25 16:58:00,
2009-09-25 09:59:00,77.5,38.9,29.92,NE,51,2.0,5.0,25,0.00,,,0.00,Wunderground v.1.15,2009-09-25 16:59:00,
2009-09-25 10:01:00,78.1,41.4,29.92,NE,45,1.0,4.0,27,0.00,,,0.00,Wunderground v.1.15,2009-09-25 17:01:00,
2009-09-25 10:04:00,78.7,35.5,29.92,ENE,66,2.0,4.0,21,0.00,,,0.00,Wunderground v.1.15,2009-09-25 17:04:00,
2009-09-25 10:06:00,79.7,36.3,29.92,ENE,57,2.0,6.0,21,0.00,,,0.00,Wunderground v.1.15,2009-09-25 17:06:00,
2009-09-25 10:09:00,80.4,34.3,29.92,East,83,5.0,6.0,19,0.00,,,0.00,Wunderground v.1.15,2009-09-25 17:09:00,
2009-09-25 10:12:00,80.7,34.6,29.93,ENE,63,4.0,6.0,19,0.00,,,0.00,Wunderground v.1.15,2009-09-25 17:12:00,
2009-09-25 10:14:00,80.8,37.2,29.92,ENE,74,3.0,6.0,21,0.00,,,0.00,Wunderground v.1.15,2009-09-25 17:14:00,
2009-09-25 10:17:00,80.9,34.8,29.93,ENE,68,2.0,7.0,19,0.00,,,0.00,Wunderground v.1.15,2009-09-25 17:17:00,
2009-09-25 10:19:00,81.0,34.8,29.93,ENE,65,4.0,7.0,19,0.00,,,0.00,Wunderground v.1.15,2009-09-25 17:19:00,
2009-09-25 10:22:00,81.6,35.3,29.93,ENE,57,4.0,6.0,19,0.00,,,0.00,Wunderground v.1.15,2009-09-25 17:22:00,
2009-09-25 10:24:00,81.9,36.9,29.93,ENE,78,0.0,6.0,20,0.00,,,0.00,Wunderground v.1.15,2009-09-25 17:24:00,
2009-09-25 10:25:00,81.9,36.9,29.93,ENE,78,1.0,6.0,20,0.00,,,0.00,Wunderground v.1.15,2009-09-25 17:25:00,
2009-09-25 10:27:00,82.0,35.7,29.93,ENE,65,4.0,6.0,19,0.00,,,0.00,Wunderground v.1.15,2009-09-25 17:27:00,
2009-09-25 10:29:00,81.9,38.1,29.93,ENE,60,1.0,6.0,21,0.00,,,0.00,Wunderground v.1.15,2009-09-25 17:29:00,
2009-09-25 10:30:00,81.9,38.1,29.93,ENE,67,5.0,6.0,21,0.00,,,0.00,Wunderground v.1.15,2009-09-25 17:30:00,
2009-09-25 10:32:00,82.0,39.4,29.93,ENE,69,3.0,6.0,22,0.00,,,0.00,Wunderground v.1.15,2009-09-25 17:32:00,
2009-09-25 10:35:00,81.8,39.2,29.93,ENE,59,2.0,6.0,22,0.00,,,0.00,Wunderground v.1.15,2009-09-25 17:35:00,
2009-09-25 10:37:00,81.7,40.3,29.93,ENE,65,2.0,6.0,23,0.00,,,0.00,Wunderground v.1.15,2009-09-25 17:37:00,
2009-09-25 10:40:00,82.0,40.5,29.93,ENE,66,0.0,2.0,23,0.00,,,0.00,Wunderground v.1.15,2009-09-25 17:40:00,
2009-09-25 10:43:00,82.3,40.8,29.93,ENE,65,1.0,6.0,23,0.00,,,0.00,Wunderground v.1.15,2009-09-25 17:43:00,
2009-09-25 10:45:00,82.2,41.8,29.93,ENE,59,3.0,6.0,24,0.00,,,0.00,Wunderground v.1.15,2009-09-25 17:45:00,
2009-09-25 10:48:00,82.0,43.7,29.93,ENE,60,3.0,6.0,26,0.00,,,0.00,Wunderground v.1.15,2009-09-25 17:48:00,
2009-09-25 10:50:00,81.6,43.4,29.93,ENE,63,3.0,3.0,26,0.00,,,0.00,Wunderground v.1.15,2009-09-25 17:50:00,
2009-09-25 10:51:00,81.5,43.3,29.93,ENE,63,3.0,3.0,26,0.00,,,0.00,Wunderground v.1.15,2009-09-25 17:51:00,
2009-09-25 10:53:00,81.6,41.3,29.94,ENE,65,4.0,4.0,24,0.00,,,0.00,Wunderground v.1.15,2009-09-25 17:53:00,
2009-09-25 10:55:00,81.3,37.6,29.94,ENE,68,3.0,7.0,21,0.00,,,0.00,Wunderground v.1.15,2009-09-25 17:55:00,
2009-09-25 10:56:00,81.3,39.9,29.93,ENE,71,4.0,7.0,23,0.00,,,0.00,Wunderground v.1.15,2009-09-25 17:56:00,
2009-09-25 10:58:00,81.4,38.9,29.93,ENE,77,4.0,7.0,22,0.00,,,0.00,Wunderground v.1.15,2009-09-25 17:58:00,
2009-09-25 11:00:00,81.8,38.0,29.93,ENE,72,2.0,4.0,21,0.00,,,0.00,Wunderground v.1.15,2009-09-25 18:00:00,
2009-09-25 11:02:00,82.0,37.0,29.94,ENE,70,0.0,6.0,20,0.00,,,0.00,Wunderground v.1.15,2009-09-25 18:02:00,
2009-09-25 11:04:00,82.2,43.9,29.94,ENE,71,0.0,6.0,26,0.00,,,0.00,Wunderground v.1.15,2009-09-25 18:04:00,
2009-09-25 11:05:00,81.6,42.4,29.93,ENE,71,0.0,6.0,25,0.00,,,0.00,Wunderground v.1.15,2009-09-25 18:05:00,
2009-09-25 11:07:00,81.1,38.6,29.93,ENE,64,5.0,6.0,22,0.00,,,0.00,Wunderground v.1.15,2009-09-25 18:07:00,
2009-09-25 11:09:00,81.0,41.9,29.94,ENE,69,1.0,6.0,25,0.00,,,0.00,Wunderground v.1.15,2009-09-25 18:09:00,
2009-09-25 11:10:00,80.9,40.7,29.94,East,98,1.0,2.0,24,0.00,,,0.00,Wunderground v.1.15,2009-09-25 18:10:00,
2009-09-25 11:12:00,80.7,38.3,29.94,ENE,65,6.0,6.0,22,0.00,,,0.00,Wunderground v.1.15,2009-09-25 18:12:00,
2009-09-25 11:14:00,80.9,37.3,29.94,NE,55,0.0,6.0,21,0.00,,,0.00,Wunderground v.1.15,2009-09-25 18:14:00,
2009-09-25 11:15:00,81.0,39.7,29.94,ENE,76,2.0,6.0,23,0.00,,,0.00,Wunderground v.1.15,2009-09-25 18:15:00,
2009-09-25 11:16:00,81.1,37.5,29.94,ENE,63,3.0,6.0,21,0.00,,,0.00,Wunderground v.1.15,2009-09-25 18:16:00,
2009-09-25 11:18:00,81.0,39.7,29.94,ENE,61,0.0,6.0,23,0.00,,,0.00,Wunderground v.1.15,2009-09-25 18:18:00,
2009-09-25 11:20:00,81.1,38.6,29.94,ENE,74,6.0,6.0,22,0.00,,,0.00,Wunderground v.1.15,2009-09-25 18:20:00,
2009-09-25 11:21:00,80.9,38.5,29.94,East,83,1.0,6.0,22,0.00,,,0.00,Wunderground v.1.15,2009-09-25 18:21:00,
2009-09-25 11:23:00,80.5,44.4,29.94,East,83,0.0,6.0,28,0.00,,,0.00,Wunderground v.1.15,2009-09-25 18:23:00,
2009-09-25 11:25:00,80.5,40.4,29.93,East,95,0.0,6.0,24,0.00,,,0.00,Wunderground v.1.15,2009-09-25 18:25:00,
2009-09-25 11:26:00,80.6,40.5,29.94,East,94,0.0,6.0,24,0.00,,,0.00,Wunderground v.1.15,2009-09-25 18:26:00,
2009-09-25 11:28:00,80.7,39.4,29.94,ENE,68,1.0,6.0,23,0.00,,,0.00,Wunderground v.1.15,2009-09-25 18:28:00,
2009-09-25 11:30:00,80.8,38.4,29.93,ENE,64,1.0,2.0,22,0.00,,,0.00,Wunderground v.1.15,2009-09-25 18:30:00,
2009-09-25 11:31:00,80.8,36.0,29.93,ENE,67,5.0,6.0,20,0.00,,,0.00,Wunderground v.1.15,2009-09-25 18:31:00,
2009-09-25 11:33:00,80.6,40.5,29.93,ENE,63,5.0,6.0,24,0.00,,,0.00,Wunderground v.1.15,2009-09-25 18:33:00,
2009-09-25 11:35:00,80.6,39.4,29.93,ENE,60,3.0,6.0,23,0.00,,,0.00,Wunderground v.1.15,2009-09-25 18:35:00,
2009-09-25 11:36:00,81.0,39.7,29.93,NE,48,3.0,6.0,23,0.00,,,0.00,Wunderground v.1.15,2009-09-25 18:36:00,
2009-09-25 11:37:00,81.0,39.7,29.93,ENE,71,4.0,6.0,23,0.00,,,0.00,Wunderground v.1.15,2009-09-25 18:37:00,
2009-09-25 11:38:00,80.9,38.5,29.93,ENE,74,5.0,9.0,22,0.00,,,0.00,Wunderground v.1.15,2009-09-25 18:38:00,
2009-09-25 11:40:00,80.7,37.1,29.93,NE,55,5.0,10.0,21,0.00,,,0.00,Wunderground v.1.15,2009-09-25 18:40:00,
2009-09-25 11:41:00,80.8,37.2,29.93,ENE,68,6.0,10.0,21,0.00,,,0.00,Wunderground v.1.15,2009-09-25 18:41:00,
2009-09-25 11:42:00,80.9,37.3,29.93,ENE,69,3.0,10.0,21,0.00,,,0.00,Wunderground v.1.15,2009-09-25 18:42:00,
2009-09-25 11:43:00,80.9,37.3,29.93,ENE,64,3.0,10.0,21,0.00,,,0.00,Wunderground v.1.15,2009-09-25 18:43:00,
2009-09-25 11:46:00,81.4,42.2,29.93,East,82,1.0,10.0,25,0.00,,,0.00,Wunderground v.1.15,2009-09-25 18:46:00,
2009-09-25 11:47:00,81.5,40.1,29.93,ENE,69,4.0,10.0,23,0.00,,,0.00,Wunderground v.1.15,2009-09-25 18:47:00,
2009-09-25 11:48:00,81.4,41.1,29.94,ENE,78,4.0,10.0,24,0.00,,,0.00,Wunderground v.1.15,2009-09-25 18:48:00,
2009-09-25 11:51:00,81.1,41.9,29.93,ENE,71,4.0,7.0,25,0.00,,,0.00,Wunderground v.1.15,2009-09-25 18:51:00,
2009-09-25 11:52:00,81.1,41.9,29.93,ENE,72,3.0,7.0,25,0.00,,,0.00,Wunderground v.1.15,2009-09-25 18:52:00,
2009-09-25 11:53:00,81.0,43.9,29.93,ENE,68,2.0,7.0,27,0.00,,,0.00,Wunderground v.1.15,2009-09-25 18:53:00,
2009-09-25 11:54:00,81.1,43.0,29.93,East,90,2.0,7.0,26,0.00,,,0.00,Wunderground v.1.15,2009-09-25 18:54:00,
2009-09-25 11:57:00,80.7,45.5,29.93,ENE,72,3.0,7.0,29,0.00,,,0.00,Wunderground v.1.15,2009-09-25 18:57:00,
2009-09-25 11:59:00,80.4,44.3,29.93,East,80,5.0,7.0,28,0.00,,,0.00,Wunderground v.1.15,2009-09-25 18:59:00,
2009-09-25 12:02:00,80.8,43.7,29.93,ENE,78,2.0,11.0,27,0.00,,,0.00,Wunderground v.1.15,2009-09-25 19:02:00,
2009-09-25 12:04:00,80.7,42.6,29.93,ENE,78,3.0,11.0,26,0.00,,,0.00,Wunderground v.1.15,2009-09-25 19:04:00,
2009-09-25 12:07:00,80.5,45.3,29.93,ENE,76,3.0,11.0,29,0.00,,,0.00,Wunderground v.1.15,2009-09-25 19:07:00,
2009-09-25 12:09:00,80.8,46.5,29.93,ENE,73,1.0,11.0,30,0.00,,,0.00,Wunderground v.1.15,2009-09-25 19:09:00,
2009-09-25 12:10:00,80.7,46.4,29.93,ENE,73,0.0,3.0,30,0.00,,,0.00,Wunderground v.1.15,2009-09-25 19:10:00,
2009-09-25 12:12:00,81.0,44.8,29.93,ENE,67,4.0,6.0,28,0.00,,,0.00,Wunderground v.1.15,2009-09-25 19:12:00,
2009-09-25 12:15:00,81.0,42.9,29.93,ENE,65,3.0,9.0,26,0.00,,,0.00,Wunderground v.1.15,2009-09-25 19:15:00,
2009-09-25 12:17:00,81.4,42.2,29.93,ENE,72,3.0,9.0,25,0.00,,,0.00,Wunderground v.1.15,2009-09-25 19:17:00,
2009-09-25 12:20:00,81.4,44.2,29.93,ENE,68,7.0,7.0,27,0.00,,,0.00,Wunderground v.1.15,2009-09-25 19:20:00,
2009-09-25 12:22:00,81.7,44.5,29.93,East,82,2.0,11.0,27,0.00,,,0.00,Wunderground v.1.15,2009-09-25 19:22:00,
2009-09-25 12:25:00,81.7,48.1,29.93,ENE,76,5.0,11.0,31,0.00,,,0.00,Wunderground v.1.15,2009-09-25 19:25:00,
2009-09-25 12:26:00,81.7,46.3,29.93,ENE,78,3.0,11.0,29,0.00,,,0.00,Wunderground v.1.15,2009-09-25 19:26:00,
2009-09-25 12:27:00,81.8,46.4,29.93,East,83,3.0,11.0,29,0.00,,,0.00,Wunderground v.1.15,2009-09-25 19:27:00,
2009-09-25 12:30:00,81.9,45.6,29.93,ENE,68,3.0,4.0,28,0.00,,,0.00,Wunderground v.1.15,2009-09-25 19:30:00,
2009-09-25 12:31:00,81.9,46.5,29.93,ENE,68,3.0,4.0,29,0.00,,,0.00,Wunderground v.1.15,2009-09-25 19:31:00,
2009-09-25 12:32:00,81.9,46.5,29.93,East,82,6.0,10.0,29,0.00,,,0.00,Wunderground v.1.15,2009-09-25 19:32:00,
2009-09-25 12:33:00,81.9,46.5,29.93,ENE,72,6.0,10.0,29,0.00,,,0.00,Wunderground v.1.15,2009-09-25 19:33:00,
2009-09-25 12:35:00,82.0,43.7,29.93,ENE,74,3.0,10.0,26,0.00,,,0.00,Wunderground v.1.15,2009-09-25 19:35:00,
2009-09-25 12:36:00,82.0,44.7,29.94,East,83,4.0,10.0,27,0.00,,,0.00,Wunderground v.1.15,2009-09-25 19:36:00,
2009-09-25 12:38:00,82.2,44.9,29.94,ENE,75,3.0,10.0,27,0.00,,,0.00,Wunderground v.1.15,2009-09-25 19:38:00,
2009-09-25 12:39:00,82.0,44.7,29.94,ENE,75,3.0,10.0,27,0.00,,,0.00,Wunderground v.1.15,2009-09-25 19:39:00,
2009-09-25 12:41:00,81.7,45.4,29.94,East,85,4.0,5.0,28,0.00,,,0.00,Wunderground v.1.15,2009-09-25 19:41:00,
2009-09-25 12:43:00,81.7,48.1,29.93,East,91,1.0,5.0,31,0.00,,,0.00,Wunderground v.1.15,2009-09-25 19:43:00,
2009-09-25 12:44:00,81.6,45.3,29.93,ENE,76,2.0,5.0,28,0.00,,,0.00,Wunderground v.1.15,2009-09-25 19:44:00,
2009-09-25 12:46:00,81.8,46.4,29.93,ENE,69,0.0,6.0,29,0.00,,,0.00,Wunderground v.1.15,2009-09-25 19:46:00,
2009-09-25 12:48:00,82.0,45.7,29.93,ENE,67,3.0,9.0,28,0.00,,,0.00,Wunderground v.1.15,2009-09-25 19:48:00,
2009-09-25 12:49:00,82.0,43.7,29.93,ENE,74,4.0,9.0,26,0.00,,,0.00,Wunderground v.1.15,2009-09-25 19:49:00,
2009-09-25 12:51:00,82.0,47.5,29.93,East,80,3.0,9.0,30,0.00,,,0.00,Wunderground v.1.15,2009-09-25 19:51:00,
2009-09-25 12:52:00,81.9,45.6,29.93,ENE,71,5.0,9.0,28,0.00,,,0.00,Wunderground v.1.15,2009-09-25 19:52:00,
2009-09-25 12:53:00,81.7,47.2,29.93,ENE,75,3.0,9.0,30,0.00,,,0.00,Wunderground v.1.15,2009-09-25 19:53:00,
2009-09-25 12:54:00,81.5,50.4,29.93,ENE,74,4.0,9.0,34,0.00,,,0.00,Wunderground v.1.15,2009-09-25 19:54:00,
2009-09-25 12:56:00,81.0,50.0,29.93,ENE,69,2.0,9.0,34,0.00,,,0.00,Wunderground v.1.15,2009-09-25 19:56:00,
2009-09-25 12:57:00,81.0,50.8,29.93,ENE,69,2.0,9.0,35,0.00,,,0.00,Wunderground v.1.15,2009-09-25 19:57:00,
2009-09-25 12:59:00,81.2,50.9,29.93,ENE,78,3.0,9.0,35,0.00,,,0.00,Wunderground v.1.15,2009-09-25 19:59:00,
2009-09-25 13:00:00,81.4,51.1,29.93,ENE,67,5.0,5.0,35,0.00,,,0.00,Wunderground v.1.15,2009-09-25 20:00:00,
2009-09-25 13:01:00,81.3,51.0,29.93,East,82,3.0,5.0,35,0.00,,,0.00,Wunderground v.1.15,2009-09-25 20:01:00,
2009-09-25 13:03:00,81.4,50.3,29.93,ENE,68,1.0,5.0,34,0.00,,,0.00,Wunderground v.1.15,2009-09-25 20:03:00,
2009-09-25 13:04:00,81.3,51.0,29.93,ENE,61,4.0,6.0,35,0.00,,,0.00,Wunderground v.1.15,2009-09-25 20:04:00,
2009-09-25 13:05:00,81.0,50.8,29.93,ENE,65,2.0,6.0,35,0.00,,,0.00,Wunderground v.1.15,2009-09-25 20:05:00,
2009-09-25 13:06:00,81.2,51.7,29.93,ENE,70,1.0,6.0,36,0.00,,,0.00,Wunderground v.1.15,2009-09-25 20:06:00,
2009-09-25 13:08:00,81.4,51.9,29.93,ENE,65,6.0,6.0,36,0.00,,,0.00,Wunderground v.1.15,2009-09-25 20:08:00,
2009-09-25 13:09:00,81.5,50.4,29.93,ENE,72,3.0,6.0,34,0.00,,,0.00,Wunderground v.1.15,2009-09-25 20:09:00,
2009-09-25 13:11:00,81.6,51.3,29.93,ENE,74,0.0,3.0,35,0.00,,,0.00,Wunderground v.1.15,2009-09-25 20:11:00,
2009-09-25 13:12:00,81.9,51.6,29.93,East,86,1.0,3.0,35,0.00,,,0.00,Wunderground v.1.15,2009-09-25 20:12:00,
2009-09-25 13:13:00,81.9,51.6,29.93,East,86,1.0,3.0,35,0.00,,,0.00,Wunderground v.1.15,2009-09-25 20:13:00,
2009-09-25 13:14:00,82.0,51.6,29.93,ENE,65,3.0,5.0,35,0.00,,,0.00,Wunderground v.1.15,2009-09-25 20:14:00,
2009-09-25 13:16:00,82.1,51.7,29.93,ENE,63,2.0,5.0,35,0.00,,,0.00,Wunderground v.1.15,2009-09-25 20:16:00,
2009-09-25 13:17:00,81.9,52.3,29.93,ENE,65,2.0,5.0,36,0.00,,,0.00,Wunderground v.1.15,2009-09-25 20:17:00,
2009-09-25 13:18:00,81.7,52.1,29.93,ENE,61,6.0,6.0,36,0.00,,,0.00,Wunderground v.1.15,2009-09-25 20:18:00,
2009-09-25 13:19:00,81.6,52.1,29.93,ENE,69,2.0,7.0,36,0.00,,,0.00,Wunderground v.1.15,2009-09-25 20:19:00,
2009-09-25 13:21:00,82.0,53.2,29.93,ENE,67,5.0,5.0,37,0.00,,,0.00,Wunderground v.1.15,2009-09-25 20:21:00,
2009-09-25 13:22:00,81.8,52.2,29.93,ENE,76,2.0,5.0,36,0.00,,,0.00,Wunderground v.1.15,2009-09-25 20:22:00,
2009-09-25 13:23:00,81.9,52.3,29.93,ENE,66,5.0,6.0,36,0.00,,,0.00,Wunderground v.1.15,2009-09-25 20:23:00,
2009-09-25 13:24:00,81.6,52.8,29.92,NE,48,0.0,6.0,37,0.00,,,0.00,Wunderground v.1.15,2009-09-25 20:24:00,
2009-09-25 13:26:00,81.8,53.7,29.93,ENE,59,1.0,6.0,38,0.00,,,0.00,Wunderground v.1.15,2009-09-25 20:26:00,
2009-09-25 13:27:00,81.8,53.7,29.93,ENE,59,0.0,6.0,38,0.00,,,0.00,Wunderground v.1.15,2009-09-25 20:27:00,
2009-09-25 13:28:00,82.0,53.9,29.92,ENE,59,2.0,6.0,38,0.00,,,0.00,Wunderground v.1.15,2009-09-25 20:28:00,
2009-09-25 13:30:00,82.4,54.2,29.92,ENE,70,0.0,2.0,38,0.00,,,0.00,Wunderground v.1.15,2009-09-25 20:30:00,
2009-09-25 13:31:00,82.4,53.5,29.92,ENE,69,2.0,2.0,37,0.00,,,0.00,Wunderground v.1.15,2009-09-25 20:31:00,
2009-09-25 13:32:00,82.5,54.3,29.92,ENE,58,1.0,3.0,38,0.00,,,0.00,Wunderground v.1.15,2009-09-25 20:32:00,
2009-09-25 13:33:00,83.0,54.0,29.92,ENE,57,0.0,3.0,37,0.00,,,0.00,Wunderground v.1.15,2009-09-25 20:33:00,
2009-09-25 13:37:00,83.1,54.1,29.92,NE,49,2.0,4.0,37,0.00,,,0.00,Wunderground v.1.15,2009-09-25 20:37:00,
2009-09-25 13:39:00,82.3,54.2,29.92,ENE,65,3.0,4.0,38,0.00,,,0.00,Wunderground v.1.15,2009-09-25 20:39:00,
2009-09-25 13:42:00,82.5,55.0,29.92,ENE,65,2.0,4.0,39,0.00,,,0.00,Wunderground v.1.15,2009-09-25 20:42:00,
2009-09-25 13:44:00,83.3,55.0,29.92,ENE,65,0.0,4.0,38,0.00,,,0.00,Wunderground v.1.15,2009-09-25 20:44:00,
2009-09-25 13:47:00,83.4,54.4,29.92,ENE,71,0.0,5.0,37,0.00,,,0.00,Wunderground v.1.15,2009-09-25 20:47:00,
2009-09-25 13:48:00,83.3,55.0,29.92,ENE,74,1.0,5.0,38,0.00,,,0.00,Wunderground v.1.15,2009-09-25 20:48:00,
2009-09-25 13:49:00,83.1,54.9,29.92,NE,36,3.0,5.0,38,0.00,,,0.00,Wunderground v.1.15,2009-09-25 20:49:00,
2009-09-25 13:52:00,82.7,53.8,29.92,East,81,2.0,2.0,37,0.00,,,0.00,Wunderground v.1.15,2009-09-25 20:52:00,
2009-09-25 13:53:00,82.7,53.8,29.92,East,81,1.0,2.0,37,0.00,,,0.00,Wunderground v.1.15,2009-09-25 20:53:00,
2009-09-25 13:54:00,82.3,53.4,29.92,East,86,1.0,4.0,37,0.00,,,0.00,Wunderground v.1.15,2009-09-25 20:54:00,
2009-09-25 13:58:00,82.7,53.8,29.92,NE,55,0.0,4.0,37,0.00,,,0.00,Wunderground v.1.15,2009-09-25 20:58:00,
2009-09-25 13:59:00,82.8,53.1,29.92,NE,34,2.0,4.0,36,0.00,,,0.00,Wunderground v.1.15,2009-09-25 20:59:00,
2009-09-25 14:03:00,83.0,52.5,29.92,ENE,69,1.0,4.0,35,0.00,,,0.00,Wunderground v.1.15,2009-09-25 21:03:00,
2009-09-25 14:05:00,83.0,52.5,29.92,NNE,14,2.0,4.0,35,0.00,,,0.00,Wunderground v.1.15,2009-09-25 21:05:00,
2009-09-25 14:08:00,83.4,52.1,29.92,East,79,1.0,4.0,34,0.00,,,0.00,Wunderground v.1.15,2009-09-25 21:08:00,
2009-09-25 14:10:00,83.1,51.8,29.92,ENE,60,0.0,3.0,34,0.00,,,0.00,Wunderground v.1.15,2009-09-25 21:10:00,
2009-09-25 14:13:00,82.5,49.7,29.92,East,98,2.0,4.0,32,0.00,,,0.00,Wunderground v.1.15,2009-09-25 21:13:00,
2009-09-25 14:14:00,82.4,48.7,29.92,East,98,1.0,4.0,31,0.00,,,0.00,Wunderground v.1.15,2009-09-25 21:14:00,
2009-09-25 14:15:00,82.7,49.8,29.92,NNE,30,2.0,4.0,32,0.00,,,0.00,Wunderground v.1.15,2009-09-25 21:15:00,
2009-09-25 14:19:00,82.8,48.2,29.92,NNE,19,2.0,5.0,30,0.00,,,0.00,Wunderground v.1.15,2009-09-25 21:19:00,
2009-09-25 14:21:00,82.8,48.2,29.92,ENE,61,6.0,6.0,30,0.00,,,0.00,Wunderground v.1.15,2009-09-25 21:21:00,
2009-09-25 14:24:00,82.4,47.8,29.92,ENE,70,2.0,6.0,30,0.00,,,0.00,Wunderground v.1.15,2009-09-25 21:24:00,
2009-09-25 14:26:00,82.8,48.2,29.92,ENE,57,2.0,6.0,30,0.00,,,0.00,Wunderground v.1.15,2009-09-25 21:26:00,
2009-09-25 14:29:00,82.9,47.4,29.92,ESE,107,0.0,6.0,29,0.00,,,0.00,Wunderground v.1.15,2009-09-25 21:29:00,
2009-09-25 14:30:00,82.8,47.3,29.92,ESE,108,1.0,2.0,29,0.00,,,0.00,Wunderground v.1.15,2009-09-25 21:30:00,
2009-09-25 14:31:00,82.6,47.1,29.92,ENE,65,1.0,3.0,29,0.00,,,0.00,Wunderground v.1.15,2009-09-25 21:31:00,
2009-09-25 14:34:00,83.1,47.5,29.91,NNE,13,4.0,6.0,29,0.00,,,0.00,Wunderground v.1.15,2009-09-25 21:34:00,
2009-09-25 14:35:00,83.1,47.5,29.91,NE,46,3.0,6.0,29,0.00,,,0.00,Wunderground v.1.15,2009-09-25 21:35:00,
2009-09-25 14:36:00,83.1,47.5,29.91,ENE,67,3.0,6.0,29,0.00,,,0.00,Wunderground v.1.15,2009-09-25 21:36:00,
2009-09-25 14:39:00,82.8,48.2,29.92,NE,53,3.0,6.0,30,0.00,,,0.00,Wunderground v.1.15,2009-09-25 21:39:00,
2009-09-25 14:40:00,82.8,48.2,29.91,NE,53,0.0,2.0,30,0.00,,,0.00,Wunderground v.1.15,2009-09-25 21:40:00,
2009-09-25 14:41:00,82.9,49.2,29.91,ENE,69,3.0,5.0,31,0.00,,,0.00,Wunderground v.1.15,2009-09-25 21:41:00,
2009-09-25 14:45:00,82.8,49.9,29.91,ENE,75,4.0,7.0,32,0.00,,,0.00,Wunderground v.1.15,2009-09-25 21:45:00,
2009-09-25 14:46:00,83.0,50.1,29.92,ENE,76,2.0,7.0,32,0.00,,,0.00,Wunderground v.1.15,2009-09-25 21:46:00,
2009-09-25 14:50:00,83.4,50.4,29.91,ENE,64,5.0,6.0,32,0.00,,,0.00,Wunderground v.1.15,2009-09-25 21:50:00,
2009-09-25 14:51:00,83.3,51.2,29.91,ENE,67,3.0,6.0,33,0.00,,,0.00,Wunderground v.1.15,2009-09-25 21:51:00,
2009-09-25 14:55:00,83.6,51.5,29.91,ENE,69,7.0,7.0,33,0.00,,,0.00,Wunderground v.1.15,2009-09-25 21:55:00,
2009-09-25 14:56:00,83.5,51.4,29.91,ENE,68,4.0,7.0,33,0.00,,,0.00,Wunderground v.1.15,2009-09-25 21:56:00,
2009-09-25 15:00:00,83.0,52.5,29.91,ENE,59,4.0,6.0,35,0.00,,,0.00,Wunderground v.1.15,2009-09-25 22:00:00,
2009-09-25 15:01:00,82.9,52.4,29.91,ENE,58,2.0,6.0,35,0.00,,,0.00,Wunderground v.1.15,2009-09-25 22:01:00,
2009-09-25 15:02:00,83.1,52.6,29.91,East,84,2.0,6.0,35,0.00,,,0.00,Wunderground v.1.15,2009-09-25 22:02:00,
2009-09-25 15:05:00,83.7,52.3,29.91,ENE,61,1.0,6.0,34,0.00,,,0.00,Wunderground v.1.15,2009-09-25 22:05:00,
2009-09-25 15:06:00,83.7,52.3,29.91,ENE,61,1.0,6.0,34,0.00,,,0.00,Wunderground v.1.15,2009-09-25 22:06:00,
2009-09-25 15:07:00,83.8,53.2,29.91,East,87,2.0,6.0,35,0.00,,,0.00,Wunderground v.1.15,2009-09-25 22:07:00,
2009-09-25 15:11:00,84.1,48.4,29.91,ENE,67,1.0,3.0,29,0.00,,,0.00,Wunderground v.1.15,2009-09-25 22:11:00,
2009-09-25 15:12:00,84.3,51.2,29.91,ENE,68,1.0,5.0,32,0.00,,,0.00,Wunderground v.1.15,2009-09-25 22:12:00,
2009-09-25 15:16:00,84.4,51.3,29.91,ENE,68,1.0,5.0,32,0.00,,,0.00,Wunderground v.1.15,2009-09-25 22:16:00,
2009-09-25 15:17:00,84.4,51.3,29.91,ENE,68,0.0,5.0,32,0.00,,,0.00,Wunderground v.1.15,2009-09-25 22:17:00,
2009-09-25 15:21:00,84.7,53.2,29.91,ENE,75,1.0,2.0,34,0.00,,,0.00,Wunderground v.1.15,2009-09-25 22:21:00,
2009-09-25 15:22:00,85.1,52.8,29.91,ENE,70,2.0,4.0,33,0.00,,,0.00,Wunderground v.1.15,2009-09-25 22:22:00,
2009-09-25 15:26:00,84.8,52.5,29.91,ENE,68,2.0,4.0,33,0.00,,,0.00,Wunderground v.1.15,2009-09-25 22:26:00,
2009-09-25 15:27:00,84.7,52.4,29.91,ENE,68,0.0,5.0,33,0.00,,,0.00,Wunderground v.1.15,2009-09-25 22:27:00,
2009-09-25 15:31:00,84.2,52.8,29.91,ENE,69,1.0,3.0,34,0.00,,,0.00,Wunderground v.1.15,2009-09-25 22:31:00,
2009-09-25 15:32:00,84.1,52.7,29.91,ENE,69,2.0,3.0,34,0.00,,,0.00,Wunderground v.1.15,2009-09-25 22:32:00,
2009-09-25 15:36:00,84.3,52.9,29.91,ENE,67,0.0,3.0,34,0.00,,,0.00,Wunderground v.1.15,2009-09-25 22:36:00,
2009-09-25 15:37:00,84.5,52.2,29.91,NNE,19,3.0,3.0,33,0.00,,,0.00,Wunderground v.1.15,2009-09-25 22:37:00,
2009-09-25 15:38:00,84.5,52.2,29.91,NNE,19,0.0,3.0,33,0.00,,,0.00,Wunderground v.1.15,2009-09-25 22:38:00,
2009-09-25 15:41:00,84.8,51.7,29.91,NNE,19,0.0,1.0,32,0.00,,,0.00,Wunderground v.1.15,2009-09-25 22:41:00,
2009-09-25 15:42:00,85.3,52.1,29.91,ENE,63,2.0,4.0,32,0.00,,,0.00,Wunderground v.1.15,2009-09-25 22:42:00,
2009-09-25 15:43:00,85.5,52.3,29.91,ENE,63,1.0,4.0,32,0.00,,,0.00,Wunderground v.1.15,2009-09-25 22:43:00,
2009-09-25 15:46:00,86.2,52.0,29.91,NE,55,1.0,4.0,31,0.00,,,0.00,Wunderground v.1.15,2009-09-25 22:46:00,
2009-09-25 15:48:00,86.2,50.2,29.91,NE,34,2.0,4.0,29,0.00,,,0.00,Wunderground v.1.15,2009-09-25 22:48:00,
2009-09-25 15:51:00,85.7,49.8,29.91,NE,37,2.0,3.0,29,0.00,,,0.00,Wunderground v.1.15,2009-09-25 22:51:00,
2009-09-25 15:53:00,85.6,49.7,29.91,NE,40,2.0,4.0,29,0.00,,,0.00,Wunderground v.1.15,2009-09-25 22:53:00,
2009-09-25 15:54:00,85.6,49.7,29.91,NE,53,1.0,4.0,29,0.00,,,0.00,Wunderground v.1.15,2009-09-25 22:54:00,
2009-09-25 15:56:00,85.6,48.8,29.91,NE,53,4.0,4.0,28,0.00,,,0.00,Wunderground v.1.15,2009-09-25 22:56:00,
2009-09-25 15:58:00,85.0,48.2,29.91,NE,55,2.0,4.0,28,0.00,,,0.00,Wunderground v.1.15,2009-09-25 22:58:00,
2009-09-25 15:59:00,84.8,48.1,29.90,NE,55,1.0,4.0,28,0.00,,,0.00,Wunderground v.1.15,2009-09-25 22:59:00,
2009-09-25 16:02:00,84.9,49.1,29.90,ENE,57,2.0,3.0,29,0.00,,,0.00,Wunderground v.1.15,2009-09-25 23:02:00,
2009-09-25 16:03:00,84.9,50.0,29.90,ENE,59,1.0,3.0,30,0.00,,,0.00,Wunderground v.1.15,2009-09-25 23:03:00,
2009-09-25 16:04:00,85.0,49.2,29.90,ENE,59,1.0,3.0,29,0.00,,,0.00,Wunderground v.1.15,2009-09-25 23:04:00,
2009-09-25 16:07:00,84.9,50.0,29.90,ENE,59,2.0,4.0,30,0.00,,,0.00,Wunderground v.1.15,2009-09-25 23:07:00,
2009-09-25 16:09:00,84.9,50.0,29.90,ENE,59,1.0,4.0,30,0.00,,,0.00,Wunderground v.1.15,2009-09-25 23:09:00,
2009-09-25 16:12:00,84.9,50.0,29.91,ENE,59,0.0,2.0,30,0.00,,,0.00,Wunderground v.1.15,2009-09-25 23:12:00,
2009-09-25 16:14:00,84.8,49.9,29.90,ENE,59,0.0,2.0,30,0.00,,,0.00,Wunderground v.1.15,2009-09-25 23:14:00,
2009-09-25 16:15:00,84.8,50.8,29.90,ENE,59,1.0,2.0,31,0.00,,,0.00,Wunderground v.1.15,2009-09-25 23:15:00,
2009-09-25 16:18:00,85.4,50.4,29.90,ENE,59,2.0,2.0,30,0.00,,,0.00,Wunderground v.1.15,2009-09-25 23:18:00,
2009-09-25 16:19:00,85.6,49.7,29.90,ENE,59,0.0,2.0,29,0.00,,,0.00,Wunderground v.1.15,2009-09-25 23:19:00,
2009-09-25 16:20:00,85.8,49.9,29.90,ENE,59,1.0,1.0,29,0.00,,,0.00,Wunderground v.1.15,2009-09-25 23:20:00,
2009-09-25 16:23:00,85.6,51.5,29.90,ENE,59,1.0,3.0,31,0.00,,,0.00,Wunderground v.1.15,2009-09-25 23:23:00,
2009-09-25 16:24:00,85.5,51.4,29.90,ENE,59,0.0,3.0,31,0.00,,,0.00,Wunderground v.1.15,2009-09-25 23:24:00,
2009-09-25 16:25:00,85.4,50.4,29.91,ENE,59,1.0,3.0,30,0.00,,,0.00,Wunderground v.1.15,2009-09-25 23:25:00,
2009-09-25 16:28:00,85.9,50.9,29.90,ENE,59,0.0,3.0,30,0.00,,,0.00,Wunderground v.1.15,2009-09-25 23:28:00,
2009-09-25 16:29:00,86.0,51.0,29.90,ENE,59,1.0,3.0,30,0.00,,,0.00,Wunderground v.1.15,2009-09-25 23:29:00,
2009-09-25 16:30:00,86.0,51.0,29.90,ENE,59,1.0,1.0,30,0.00,,,0.00,Wunderground v.1.15,2009-09-25 23:30:00,
2009-09-25 16:33:00,85.8,49.9,29.90,ENE,59,0.0,2.0,29,0.00,,,0.00,Wunderground v.1.15,2009-09-25 23:33:00,
2009-09-25 16:34:00,85.7,49.8,29.90,ENE,59,2.0,2.0,29,0.00,,,0.00,Wunderground v.1.15,2009-09-25 23:34:00,
2009-09-25 16:35:00,85.8,49.9,29.90,ENE,59,2.0,2.0,29,0.00,,,0.00,Wunderground v.1.15,2009-09-25 23:35:00,
2009-09-25 16:38:00,86.2,50.2,29.90,ENE,59,1.0,3.0,29,0.00,,,0.00,Wunderground v.1.15,2009-09-25 23:38:00,
2009-09-25 16:40:00,85.9,50.9,29.90,ENE,59,1.0,1.0,30,0.00,,,0.00,Wunderground v.1.15,2009-09-25 23:40:00,
2009-09-25 16:41:00,85.7,50.7,29.90,ENE,59,1.0,2.0,30,0.00,,,0.00,Wunderground v.1.15,2009-09-25 23:41:00,
2009-09-25 16:44:00,85.4,50.4,29.90,ENE,59,3.0,3.0,30,0.00,,,0.00,Wunderground v.1.15,2009-09-25 23:44:00,
2009-09-25 16:45:00,85.4,50.4,29.90,ENE,59,1.0,3.0,30,0.00,,,0.00,Wunderground v.1.15,2009-09-25 23:45:00,
2009-09-25 16:46:00,85.4,51.3,29.90,ENE,59,0.0,3.0,31,0.00,,,0.00,Wunderground v.1.15,2009-09-25 23:46:00,
2009-09-25 16:49:00,84.8,49.9,29.90,ENE,59,1.0,3.0,30,0.00,,,0.00,Wunderground v.1.15,2009-09-25 23:49:00,
2009-09-25 16:50:00,84.9,50.0,29.90,ENE,59,1.0,3.0,30,0.00,,,0.00,Wunderground v.1.15,2009-09-25 23:50:00,
2009-09-25 16:51:00,85.0,51.0,29.90,ENE,59,3.0,3.0,31,0.00,,,0.00,Wunderground v.1.15,2009-09-25 23:51:00,
2009-09-25 16:55:00,85.4,49.5,29.90,ENE,59,2.0,2.0,29,0.00,,,0.00,Wunderground v.1.15,2009-09-25 23:55:00,
2009-09-25 16:56:00,85.5,46.7,29.90,ENE,59,1.0,3.0,26,0.00,,,0.00,Wunderground v.1.15,2009-09-25 23:56:00,
2009-09-25 16:57:00,85.6,46.8,29.90,ENE,59,1.0,3.0,26,0.00,,,0.00,Wunderground v.1.15,2009-09-25 23:57:00,
2009-09-25 17:00:00,85.8,46.9,29.90,ENE,59,0.0,2.0,26,0.00,,,0.00,Wunderground v.1.15,2009-09-26 00:00:00,
2009-09-25 17:01:00,85.8,46.9,29.90,ENE,59,1.0,2.0,26,0.00,,,0.00,Wunderground v.1.15,2009-09-26 00:01:00,
2009-09-25 17:02:00,85.7,47.9,29.90,ENE,59,0.0,2.0,27,0.00,,,0.00,Wunderground v.1.15,2009-09-26 00:02:00,
2009-09-25 17:05:00,85.4,49.5,29.90,ENE,59,0.0,2.0,29,0.00,,,0.00,Wunderground v.1.15,2009-09-26 00:05:00,
2009-09-25 17:06:00,85.3,49.4,29.90,ENE,59,0.0,2.0,29,0.00,,,0.00,Wunderground v.1.15,2009-09-26 00:06:00,
2009-09-25 17:07:00,85.2,49.4,29.90,ENE,59,0.0,2.0,29,0.00,,,0.00,Wunderground v.1.15,2009-09-26 00:07:00,
2009-09-25 17:10:00,85.0,49.2,29.90,ENE,59,0.0,2.0,29,0.00,,,0.00,Wunderground v.1.15,2009-09-26 00:10:00,
2009-09-25 17:11:00,85.0,48.2,29.90,ENE,59,0.0,2.0,28,0.00,,,0.00,Wunderground v.1.15,2009-09-26 00:11:00,
2009-09-25 17:12:00,85.0,48.2,29.90,ENE,59,0.0,2.0,28,0.00,,,0.00,Wunderground v.1.15,2009-09-26 00:12:00,
2009-09-25 17:16:00,85.1,49.3,29.90,ENE,59,1.0,2.0,29,0.00,,,0.00,Wunderground v.1.15,2009-09-26 00:16:00,
2009-09-25 17:17:00,85.1,49.3,29.90,ENE,59,1.0,2.0,29,0.00,,,0.00,Wunderground v.1.15,2009-09-26 00:17:00,
2009-09-25 17:21:00,84.7,49.8,29.90,ENE,59,0.0,1.0,30,0.00,,,0.00,Wunderground v.1.15,2009-09-26 00:21:00,
2009-09-25 17:22:00,84.6,47.9,29.90,ENE,59,1.0,1.0,28,0.00,,,0.00,Wunderground v.1.15,2009-09-26 00:22:00,
2009-09-25 17:26:00,84.8,47.1,29.90,ENE,59,0.0,2.0,27,0.00,,,0.00,Wunderground v.1.15,2009-09-26 00:26:00,
2009-09-25 17:27:00,84.9,47.2,29.90,ENE,59,0.0,2.0,27,0.00,,,0.00,Wunderground v.1.15,2009-09-26 00:27:00,
2009-09-25 17:28:00,85.0,47.3,29.90,ENE,59,0.0,2.0,27,0.00,,,0.00,Wunderground v.1.15,2009-09-26 00:28:00,
2009-09-25 17:32:00,85.5,47.7,29.90,ENE,59,0.0,1.0,27,0.00,,,0.00,Wunderground v.1.15,2009-09-26 00:32:00,
2009-09-25 17:33:00,85.6,47.8,29.90,ENE,59,1.0,1.0,27,0.00,,,0.00,Wunderground v.1.15,2009-09-26 00:33:00,
2009-09-25 17:37:00,85.7,47.9,29.90,ENE,59,3.0,3.0,27,0.00,,,0.00,Wunderground v.1.15,2009-09-26 00:37:00,
2009-09-25 17:38:00,85.7,46.9,29.90,ENE,59,1.0,3.0,26,0.00,,,0.00,Wunderground v.1.15,2009-09-26 00:38:00,
2009-09-25 17:42:00,85.5,45.7,29.89,NE,55,0.0,4.0,25,0.00,,,0.00,Wunderground v.1.15,2009-09-26 00:42:00,
2009-09-25 17:43:00,85.5,46.7,29.89,NE,55,0.0,4.0,26,0.00,,,0.00,Wunderground v.1.15,2009-09-26 00:43:00,
2009-09-25 17:44:00,85.5,46.7,29.89,NE,54,1.0,4.0,26,0.00,,,0.00,Wunderground v.1.15,2009-09-26 00:44:00,
2009-09-25 17:47:00,85.6,46.8,29.89,NE,54,0.0,4.0,26,0.00,,,0.00,Wunderground v.1.15,2009-09-26 00:47:00,
2009-09-25 17:48:00,85.6,47.8,29.90,NE,53,0.0,4.0,27,0.00,,,0.00,Wunderground v.1.15,2009-09-26 00:48:00,
2009-09-25 17:49:00,85.6,47.8,29.90,NE,53,0.0,4.0,27,0.00,,,0.00,Wunderground v.1.15,2009-09-26 00:49:00,
2009-09-25 17:52:00,85.7,48.8,29.90,NE,53,0.0,1.0,28,0.00,,,0.00,Wunderground v.1.15,2009-09-26 00:52:00,
2009-09-25 17:54:00,86.0,49.1,29.90,NW,309,0.0,2.0,28,0.00,,,0.00,Wunderground v.1.15,2009-09-26 00:54:00,
2009-09-25 17:57:00,86.2,49.3,29.90,NW,309,0.0,2.0,28,0.00,,,0.00,Wunderground v.1.15,2009-09-26 00:57:00,
2009-09-25 17:58:00,86.2,48.3,29.90,NW,309,2.0,3.0,27,0.00,,,0.00,Wunderground v.1.15,2009-09-26 00:58:00,
2009-09-25 17:59:00,86.2,48.3,29.90,NW,309,0.0,3.0,27,0.00,,,0.00,Wunderground v.1.15,2009-09-26 00:59:00,
2009-09-25 18:02:00,86.4,47.5,29.90,NW,309,0.0,2.0,26,0.00,,,0.00,Wunderground v.1.15,2009-09-26 01:02:00,
2009-09-25 18:03:00,86.4,47.5,29.89,NW,309,1.0,2.0,26,0.00,,,0.00,Wunderground v.1.15,2009-09-26 01:03:00,
2009-09-25 18:04:00,86.4,48.5,29.89,NW,309,1.0,2.0,27,0.00,,,0.00,Wunderground v.1.15,2009-09-26 01:04:00,
2009-09-25 18:07:00,85.9,48.0,29.89,NW,309,0.0,2.0,27,0.00,,,0.00,Wunderground v.1.15,2009-09-26 01:07:00,
2009-09-25 18:08:00,85.8,46.9,29.89,NW,309,1.0,2.0,26,0.00,,,0.00,Wunderground v.1.15,2009-09-26 01:08:00,
2009-09-25 18:09:00,85.7,46.9,29.90,NW,309,0.0,2.0,26,0.00,,,0.00,Wunderground v.1.15,2009-09-26 01:09:00,
2009-09-25 18:10:00,85.7,46.9,29.90,NW,309,0.0,0.0,26,0.00,,,0.00,Wunderground v.1.15,2009-09-26 01:10:00,
2009-09-25 18:12:00,85.7,45.8,29.90,NW,309,1.0,2.0,25,0.00,,,0.00,Wunderground v.1.15,2009-09-26 01:12:00,
2009-09-25 18:13:00,85.8,45.9,29.90,NW,309,0.0,2.0,25,0.00,,,0.00,Wunderground v.1.15,2009-09-26 01:13:00,
2009-09-25 18:14:00,85.7,46.9,29.90,NW,309,0.0,2.0,26,0.00,,,0.00,Wunderground v.1.15,2009-09-26 01:14:00,
2009-09-25 18:15:00,85.5,46.7,29.90,NW,309,0.0,2.0,26,0.00,,,0.00,Wunderground v.1.15,2009-09-26 01:15:00,
2009-09-25 18:18:00,84.6,47.9,29.90,NW,309,0.0,2.0,28,0.00,,,0.00,Wunderground v.1.15,2009-09-26 01:18:00,
2009-09-25 18:19:00,84.3,46.7,29.90,NW,309,0.0,2.0,27,0.00,,,0.00,Wunderground v.1.15,2009-09-26 01:19:00,
2009-09-25 18:20:00,84.2,43.5,29.90,NW,309,0.0,0.0,24,0.00,,,0.00,Wunderground v.1.15,2009-09-26 01:20:00,
2009-09-25 18:24:00,84.4,42.5,29.90,NW,309,0.0,0.0,23,0.00,,,0.00,Wunderground v.1.15,2009-09-26 01:24:00,
2009-09-25 18:25:00,84.1,41.1,29.90,NW,309,0.0,0.0,22,0.00,,,0.00,Wunderground v.1.15,2009-09-26 01:25:00,
2009-09-25 18:29:00,83.9,38.5,29.90,NW,309,1.0,1.0,20,0.00,,,0.00,Wunderground v.1.15,2009-09-26 01:29:00,
2009-09-25 18:30:00,83.9,37.2,29.90,NE,36,2.0,2.0,19,0.00,,,0.00,Wunderground v.1.15,2009-09-26 01:30:00,
2009-09-25 18:31:00,83.9,37.2,29.90,NE,36,2.0,2.0,19,0.00,,,0.00,Wunderground v.1.15,2009-09-26 01:31:00,
2009-09-25 18:34:00,83.9,32.9,29.90,NE,36,0.0,2.0,16,0.00,,,0.00,Wunderground v.1.15,2009-09-26 01:34:00,
2009-09-25 18:35:00,84.0,33.0,29.90,NE,36,1.0,2.0,16,0.00,,,0.00,Wunderground v.1.15,2009-09-26 01:35:00,
2009-09-25 18:36:00,84.0,33.0,29.90,NE,36,1.0,2.0,16,0.00,,,0.00,Wunderground v.1.15,2009-09-26 01:36:00,
2009-09-25 18:39:00,84.1,31.4,29.90,NE,36,0.0,2.0,15,0.00,,,0.00,Wunderground v.1.15,2009-09-26 01:39:00,
2009-09-25 18:40:00,84.1,31.4,29.90,NE,36,1.0,1.0,15,0.00,,,0.00,Wunderground v.1.15,2009-09-26 01:40:00,
2009-09-25 18:41:00,84.1,31.4,29.90,NE,36,0.0,1.0,15,0.00,,,0.00,Wunderground v.1.15,2009-09-26 01:41:00,
2009-09-25 18:44:00,84.1,34.6,29.90,NE,46,0.0,1.0,17,0.00,,,0.00,Wunderground v.1.15,2009-09-26 01:44:00,
2009-09-25 18:46:00,84.0,35.9,29.90,NE,46,0.0,1.0,18,0.00,,,0.00,Wunderground v.1.15,2009-09-26 01:46:00,
2009-09-25 18:47:00,83.8,35.8,29.90,NE,45,0.0,1.0,18,0.00,,,0.00,Wunderground v.1.15,2009-09-26 01:47:00,
2009-09-25 18:48:00,83.7,35.7,29.90,NE,46,0.0,1.0,18,0.00,,,0.00,Wunderground v.1.15,2009-09-26 01:48:00,
2009-09-25 18:49:00,83.6,35.6,29.90,NE,46,0.0,1.0,18,0.00,,,0.00,Wunderground v.1.15,2009-09-26 01:49:00,
2009-09-25 18:51:00,83.6,34.2,29.90,NE,46,0.0,1.0,17,0.00,,,0.00,Wunderground v.1.15,2009-09-26 01:51:00,
2009-09-25 18:52:00,83.6,35.6,29.90,NE,46,0.0,1.0,18,0.00,,,0.00,Wunderground v.1.15,2009-09-26 01:52:00,
2009-09-25 18:53:00,83.6,32.6,29.90,NE,46,0.0,1.0,16,0.00,,,0.00,Wunderground v.1.15,2009-09-26 01:53:00,
2009-09-25 18:55:00,83.6,32.6,29.90,NE,46,0.0,1.0,16,0.00,,,0.00,Wunderground v.1.15,2009-09-26 01:55:00,
2009-09-25 18:56:00,83.6,32.6,29.90,NE,46,0.0,1.0,16,0.00,,,0.00,Wunderground v.1.15,2009-09-26 01:56:00,
2009-09-25 18:57:00,83.6,32.6,29.90,NE,46,0.0,1.0,16,0.00,,,0.00,Wunderground v.1.15,2009-09-26 01:57:00,
2009-09-25 18:58:00,83.6,32.6,29.90,NE,46,0.0,1.0,16,0.00,,,0.00,Wunderground v.1.15,2009-09-26 01:58:00,
2009-09-25 19:00:00,83.7,32.7,29.90,NE,46,0.0,0.0,16,0.00,,,0.00,Wunderground v.1.15,2009-09-26 02:00:00,
2009-09-25 19:01:00,83.6,32.6,29.90,NE,46,1.0,1.0,16,0.00,,,0.00,Wunderground v.1.15,2009-09-26 02:01:00,
2009-09-25 19:02:00,83.6,31.0,29.90,NE,46,0.0,1.0,15,0.00,,,0.00,Wunderground v.1.15,2009-09-26 02:02:00,
2009-09-25 19:03:00,83.6,32.6,29.90,NE,46,1.0,1.0,16,0.00,,,0.00,Wunderground v.1.15,2009-09-26 02:03:00,
2009-09-25 19:05:00,83.6,31.0,29.90,NE,45,0.0,1.0,15,0.00,,,0.00,Wunderground v.1.15,2009-09-26 02:05:00,
2009-09-25 19:06:00,83.6,31.0,29.90,NE,45,0.0,1.0,15,0.00,,,0.00,Wunderground v.1.15,2009-09-26 02:06:00,
2009-09-25 19:08:00,83.7,31.1,29.90,NE,46,0.0,1.0,15,0.00,,,0.00,Wunderground v.1.15,2009-09-26 02:08:00,
2009-09-25 19:10:00,83.6,31.0,29.90,NE,46,0.0,0.0,15,0.00,,,0.00,Wunderground v.1.15,2009-09-26 02:10:00,
2009-09-25 19:12:00,83.5,29.3,29.90,NE,46,0.0,0.0,14,0.00,,,0.00,Wunderground v.1.15,2009-09-26 02:12:00,
2009-09-25 19:13:00,83.4,30.9,29.90,NE,45,0.0,1.0,15,0.00,,,0.00,Wunderground v.1.15,2009-09-26 02:13:00,
2009-09-25 19:14:00,83.4,29.2,29.90,NE,46,1.0,1.0,14,0.00,,,0.00,Wunderground v.1.15,2009-09-26 02:14:00,
2009-09-25 19:15:00,83.3,29.1,29.90,NE,46,0.0,1.0,14,0.00,,,0.00,Wunderground v.1.15,2009-09-26 02:15:00,
2009-09-25 19:17:00,83.4,29.2,29.90,NE,46,0.0,1.0,14,0.00,,,0.00,Wunderground v.1.15,2009-09-26 02:17:00,
2009-09-25 19:18:00,83.3,30.8,29.90,NE,46,0.0,1.0,15,0.00,,,0.00,Wunderground v.1.15,2009-09-26 02:18:00,
2009-09-25 19:19:00,83.3,29.1,29.90,NE,46,0.0,1.0,14,0.00,,,0.00,Wunderground v.1.15,2009-09-26 02:19:00,
2009-09-25 19:20:00,83.2,29.0,29.90,NE,46,0.0,0.0,14,0.00,,,0.00,Wunderground v.1.15,2009-09-26 02:20:00,
2009-09-25 19:22:00,83.2,29.0,29.90,NE,46,0.0,0.0,14,0.00,,,0.00,Wunderground v.1.15,2009-09-26 02:22:00,
2009-09-25 19:23:00,83.1,28.9,29.90,NE,45,0.0,0.0,14,0.00,,,0.00,Wunderground v.1.15,2009-09-26 02:23:00,
2009-09-25 19:24:00,83.1,28.9,29.90,NE,46,0.0,0.0,14,0.00,,,0.00,Wunderground v.1.15,2009-09-26 02:24:00,
2009-09-25 19:25:00,83.1,28.9,29.91,NE,46,0.0,0.0,14,0.00,,,0.00,Wunderground v.1.15,2009-09-26 02:25:00,
2009-09-25 19:27:00,83.0,28.9,29.91,NE,46,0.0,0.0,14,0.00,,,0.00,Wunderground v.1.15,2009-09-26 02:27:00,
2009-09-25 19:29:00,82.9,30.5,29.91,NE,46,0.0,0.0,15,0.00,,,0.00,Wunderground v.1.15,2009-09-26 02:29:00,
2009-09-25 19:30:00,82.9,30.5,29.91,NE,45,0.0,0.0,15,0.00,,,0.00,Wunderground v.1.15,2009-09-26 02:30:00,
2009-09-25 19:33:00,82.8,30.4,29.91,NE,45,0.0,1.0,15,0.00,,,0.00,Wunderground v.1.15,2009-09-26 02:33:00,
2009-09-25 19:34:00,82.7,30.3,29.91,NE,46,0.0,1.0,15,0.00,,,0.00,Wunderground v.1.15,2009-09-26 02:34:00,
2009-09-25 19:36:00,82.8,30.4,29.91,NE,46,0.0,1.0,15,0.00,,,0.00,Wunderground v.1.15,2009-09-26 02:36:00,
2009-09-25 19:38:00,82.9,28.8,29.91,NE,46,0.0,1.0,14,0.00,,,0.00,Wunderground v.1.15,2009-09-26 02:38:00,
2009-09-25 19:39:00,82.9,28.8,29.91,NE,46,1.0,1.0,14,0.00,,,0.00,Wunderground v.1.15,2009-09-26 02:39:00,
2009-09-25 19:41:00,83.1,28.9,29.91,NE,45,0.0,0.0,14,0.00,,,0.00,Wunderground v.1.15,2009-09-26 02:41:00,
2009-09-25 19:43:00,83.0,28.9,29.91,NE,46,0.0,0.0,14,0.00,,,0.00,Wunderground v.1.15,2009-09-26 02:43:00,
2009-09-25 19:44:00,83.0,28.9,29.91,NE,45,0.0,0.0,14,0.00,,,0.00,Wunderground v.1.15,2009-09-26 02:44:00,
2009-09-25 19:45:00,83.0,28.9,29.91,NE,46,0.0,0.0,14,0.00,,,0.00,Wunderground v.1.15,2009-09-26 02:45:00,
2009-09-25 19:46:00,82.8,28.7,29.91,NE,45,0.0,1.0,14,0.00,,,0.00,Wunderground v.1.15,2009-09-26 02:46:00,
2009-09-25 19:49:00,82.9,28.8,29.91,NE,46,0.0,1.0,14,0.00,,,0.00,Wunderground v.1.15,2009-09-26 02:49:00,
2009-09-25 19:50:00,82.8,28.7,29.91,NE,45,1.0,1.0,14,0.00,,,0.00,Wunderground v.1.15,2009-09-26 02:50:00,
2009-09-25 19:51:00,82.7,28.6,29.91,NE,46,0.0,1.0,14,0.00,,,0.00,Wunderground v.1.15,2009-09-26 02:51:00,
2009-09-25 19:54:00,82.8,30.4,29.91,NE,46,0.0,1.0,15,0.00,,,0.00,Wunderground v.1.15,2009-09-26 02:54:00,
2009-09-25 19:55:00,82.8,30.4,29.91,NE,45,0.0,1.0,15,0.00,,,0.00,Wunderground v.1.15,2009-09-26 02:55:00,
2009-09-25 19:57:00,82.8,32.0,29.91,NE,45,0.0,1.0,16,0.00,,,0.00,Wunderground v.1.15,2009-09-26 02:57:00,
2009-09-25 19:59:00,82.6,28.6,29.91,NE,46,0.0,1.0,14,0.00,,,0.00,Wunderground v.1.15,2009-09-26 02:59:00,
2009-09-25 20:00:00,82.6,28.6,29.91,NE,46,0.0,1.0,14,0.00,,,0.00,Wunderground v.1.15,2009-09-26 03:00:00,
2009-09-25 20:02:00,82.7,26.8,29.91,NE,45,0.0,1.0,13,0.00,,,0.00,Wunderground v.1.15,2009-09-26 03:02:00,
2009-09-25 20:05:00,82.9,27.0,29.91,NE,46,1.0,1.0,13,0.00,,,0.00,Wunderground v.1.15,2009-09-26 03:05:00,
2009-09-25 20:07:00,82.9,27.0,29.91,NE,46,0.0,1.0,13,0.00,,,0.00,Wunderground v.1.15,2009-09-26 03:07:00,
2009-09-25 20:10:00,83.1,27.1,29.91,NE,46,1.0,2.0,13,0.00,,,0.00,Wunderground v.1.15,2009-09-26 03:10:00,
2009-09-25 20:11:00,83.1,27.1,29.91,NE,45,1.0,2.0,13,0.00,,,0.00,Wunderground v.1.15,2009-09-26 03:11:00,
2009-09-25 20:12:00,83.1,27.1,29.91,NE,45,0.0,2.0,13,0.00,,,0.00,Wunderground v.1.15,2009-09-26 03:12:00,
2009-09-25 20:15:00,83.2,27.2,29.92,NE,45,0.0,2.0,13,0.00,,,0.00,Wunderground v.1.15,2009-09-26 03:15:00,
2009-09-25 20:16:00,83.2,27.2,29.91,NE,46,0.0,2.0,13,0.00,,,0.00,Wunderground v.1.15,2009-09-26 03:16:00,
2009-09-25 20:17:00,83.1,27.1,29.91,NE,46,1.0,2.0,13,0.00,,,0.00,Wunderground v.1.15,2009-09-26 03:17:00,
2009-09-25 20:20:00,83.0,27.1,29.91,NE,46,0.0,1.0,13,0.00,,,0.00,Wunderground v.1.15,2009-09-26 03:20:00,
2009-09-25 20:21:00,83.0,27.1,29.91,NE,45,0.0,1.0,13,0.00,,,0.00,Wunderground v.1.15,2009-09-26 03:21:00,
2009-09-25 20:22:00,83.1,27.1,29.92,NE,46,1.0,3.0,13,0.00,,,0.00,Wunderground v.1.15,2009-09-26 03:22:00,
2009-09-25 20:25:00,82.9,27.0,29.91,NE,48,1.0,3.0,13,0.00,,,0.00,Wunderground v.1.15,2009-09-26 03:25:00,
2009-09-25 20:26:00,82.9,27.0,29.92,NE,48,1.0,3.0,13,0.00,,,0.00,Wunderground v.1.15,2009-09-26 03:26:00,
2009-09-25 20:27:00,83.0,27.1,29.92,NE,48,1.0,3.0,13,0.00,,,0.00,Wunderground v.1.15,2009-09-26 03:27:00,
2009-09-25 20:31:00,83.1,27.1,29.92,NE,48,0.0,2.0,13,0.00,,,0.00,Wunderground v.1.15,2009-09-26 03:31:00,
2009-09-25 20:33:00,83.1,27.1,29.92,NE,48,0.0,2.0,13,0.00,,,0.00,Wunderground v.1.15,2009-09-26 03:33:00,
2009-09-25 20:36:00,83.1,27.1,29.92,NE,48,0.0,2.0,13,0.00,,,0.00,Wunderground v.1.15,2009-09-26 03:36:00,
2009-09-25 20:37:00,83.0,27.1,29.92,NE,48,1.0,2.0,13,0.00,,,0.00,Wunderground v.1.15,2009-09-26 03:37:00,
2009-09-25 20:38:00,83.0,27.1,29.92,NE,48,0.0,2.0,13,0.00,,,0.00,Wunderground v.1.15,2009-09-26 03:38:00,
2009-09-25 20:41:00,82.9,27.0,29.92,NE,48,0.0,1.0,13,0.00,,,0.00,Wunderground v.1.15,2009-09-26 03:41:00,
2009-09-25 20:42:00,83.0,27.1,29.92,NE,48,0.0,1.0,13,0.00,,,0.00,Wunderground v.1.15,2009-09-26 03:42:00,
2009-09-25 20:44:00,82.9,28.8,29.92,NE,48,0.0,1.0,14,0.00,,,0.00,Wunderground v.1.15,2009-09-26 03:44:00,
2009-09-25 20:46:00,81.9,28.0,29.92,NE,48,0.0,1.0,14,0.00,,,0.00,Wunderground v.1.15,2009-09-26 03:46:00,
2009-09-25 20:47:00,82.0,28.1,29.92,NE,48,1.0,1.0,14,0.00,,,0.00,Wunderground v.1.15,2009-09-26 03:47:00,
2009-09-25 20:48:00,82.1,28.2,29.92,NE,48,1.0,1.0,14,0.00,,,0.00,Wunderground v.1.15,2009-09-26 03:48:00,
2009-09-25 20:49:00,82.2,28.2,29.92,NE,48,0.0,1.0,14,0.00,,,0.00,Wunderground v.1.15,2009-09-26 03:49:00,
2009-09-25 20:51:00,82.3,28.3,29.92,NE,48,0.0,1.0,14,0.00,,,0.00,Wunderground v.1.15,2009-09-26 03:51:00,
2009-09-25 20:52:00,82.3,28.3,29.92,NE,48,0.0,1.0,14,0.00,,,0.00,Wunderground v.1.15,2009-09-26 03:52:00,
2009-09-25 20:53:00,82.4,28.4,29.92,NE,48,0.0,1.0,14,0.00,,,0.00,Wunderground v.1.15,2009-09-26 03:53:00,
2009-09-25 20:54:00,82.5,28.5,29.92,NE,48,0.0,1.0,14,0.00,,,0.00,Wunderground v.1.15,2009-09-26 03:54:00,
2009-09-25 20:56:00,82.6,28.6,29.92,NE,48,0.0,1.0,14,0.00,,,0.00,Wunderground v.1.15,2009-09-26 03:56:00,
2009-09-25 20:58:00,82.7,30.3,29.92,NE,48,0.0,1.0,15,0.00,,,0.00,Wunderground v.1.15,2009-09-26 03:58:00,
2009-09-25 20:59:00,82.7,30.3,29.92,NE,48,0.0,1.0,15,0.00,,,0.00,Wunderground v.1.15,2009-09-26 03:59:00,
2009-09-25 21:00:00,82.8,30.4,29.92,NE,48,0.0,0.0,15,0.00,,,0.00,Wunderground v.1.15,2009-09-26 04:00:00,
2009-09-25 21:01:00,82.8,30.4,29.92,NE,48,0.0,1.0,15,0.00,,,0.00,Wunderground v.1.15,2009-09-26 04:01:00,
2009-09-25 21:05:00,82.7,31.9,29.92,NE,48,0.0,1.0,16,0.00,,,0.00,Wunderground v.1.15,2009-09-26 04:05:00,
2009-09-25 21:06:00,82.6,31.8,29.92,NE,48,0.0,1.0,16,0.00,,,0.00,Wunderground v.1.15,2009-09-26 04:06:00,
2009-09-25 21:10:00,82.3,33.1,29.92,NE,48,0.0,0.0,17,0.00,,,0.00,Wunderground v.1.15,2009-09-26 04:10:00,
2009-09-25 21:11:00,82.4,30.1,29.92,NE,48,0.0,0.0,15,0.00,,,0.00,Wunderground v.1.15,2009-09-26 04:11:00,
2009-09-25 21:15:00,82.8,30.4,29.92,NE,48,0.0,1.0,15,0.00,,,0.00,Wunderground v.1.15,2009-09-26 04:15:00,
2009-09-25 21:16:00,82.9,30.5,29.92,NE,48,0.0,1.0,15,0.00,,,0.00,Wunderground v.1.15,2009-09-26 04:16:00,
2009-09-25 21:20:00,83.0,33.7,29.92,NE,48,1.0,1.0,17,0.00,,,0.00,Wunderground v.1.15,2009-09-26 04:20:00,
2009-09-25 21:21:00,83.0,33.7,29.92,NE,48,0.0,1.0,17,0.00,,,0.00,Wunderground v.1.15,2009-09-26 04:21:00,
2009-09-25 21:25:00,82.8,34.9,29.92,NE,48,0.0,1.0,18,0.00,,,0.00,Wunderground v.1.15,2009-09-26 04:25:00,
2009-09-25 21:26:00,82.7,34.9,29.92,NE,48,0.0,1.0,18,0.00,,,0.00,Wunderground v.1.15,2009-09-26 04:26:00,
2009-09-25 21:27:00,82.7,34.9,29.92,NE,48,0.0,1.0,18,0.00,,,0.00,Wunderground v.1.15,2009-09-26 04:27:00,
2009-09-25 21:30:00,82.6,36.1,29.92,NE,48,0.0,0.0,19,0.00,,,0.00,Wunderground v.1.15,2009-09-26 04:30:00,
2009-09-25 21:31:00,82.7,34.9,29.92,NE,48,0.0,0.0,18,0.00,,,0.00,Wunderground v.1.15,2009-09-26 04:31:00,
2009-09-25 21:32:00,82.7,34.9,29.92,NE,48,0.0,0.0,18,0.00,,,0.00,Wunderground v.1.15,2009-09-26 04:32:00,
2009-09-25 21:35:00,82.4,34.6,29.92,NE,48,0.0,1.0,18,0.00,,,0.00,Wunderground v.1.15,2009-09-26 04:35:00,
2009-09-25 21:36:00,82.4,34.6,29.92,NE,48,0.0,1.0,18,0.00,,,0.00,Wunderground v.1.15,2009-09-26 04:36:00,
2009-09-25 21:37:00,82.4,36.0,29.92,NE,48,0.0,1.0,19,0.00,,,0.00,Wunderground v.1.15,2009-09-26 04:37:00,
2009-09-25 21:40:00,82.5,37.4,29.92,NE,49,1.0,3.0,20,0.00,,,0.00,Wunderground v.1.15,2009-09-26 04:40:00,
2009-09-25 21:41:00,82.4,38.5,29.92,NE,49,1.0,3.0,21,0.00,,,0.00,Wunderground v.1.15,2009-09-26 04:41:00,
2009-09-25 21:43:00,82.4,38.5,29.92,NE,48,1.0,3.0,21,0.00,,,0.00,Wunderground v.1.15,2009-09-26 04:43:00,
2009-09-25 21:46:00,82.2,38.4,29.92,NE,49,0.0,3.0,21,0.00,,,0.00,Wunderground v.1.15,2009-09-26 04:46:00,
2009-09-25 21:47:00,82.2,38.4,29.92,NE,48,0.0,3.0,21,0.00,,,0.00,Wunderground v.1.15,2009-09-26 04:47:00,
2009-09-25 21:48:00,82.2,39.6,29.92,NE,48,0.0,3.0,22,0.00,,,0.00,Wunderground v.1.15,2009-09-26 04:48:00,
2009-09-25 21:51:00,82.1,39.5,29.92,NE,49,0.0,1.0,22,0.00,,,0.00,Wunderground v.1.15,2009-09-26 04:51:00,
2009-09-25 21:52:00,81.9,39.3,29.92,NE,48,0.0,1.0,22,0.00,,,0.00,Wunderground v.1.15,2009-09-26 04:52:00,
2009-09-25 21:53:00,81.8,39.2,29.92,NE,49,0.0,1.0,22,0.00,,,0.00,Wunderground v.1.15,2009-09-26 04:53:00,
2009-09-25 21:56:00,81.6,39.1,29.92,NE,49,0.0,1.0,22,0.00,,,0.00,Wunderground v.1.15,2009-09-26 04:56:00,
2009-09-25 21:57:00,81.6,39.1,29.92,NE,48,0.0,1.0,22,0.00,,,0.00,Wunderground v.1.15,2009-09-26 04:57:00,
2009-09-25 21:58:00,81.6,39.1,29.92,NE,48,0.0,1.0,22,0.00,,,0.00,Wunderground v.1.15,2009-09-26 04:58:00,
2009-09-25 22:01:00,81.6,39.1,29.92,NE,48,0.0,0.0,22,0.00,,,0.00,Wunderground v.1.15,2009-09-26 05:01:00,
2009-09-25 22:02:00,81.4,38.9,29.92,NE,49,0.0,1.0,22,0.00,,,0.00,Wunderground v.1.15,2009-09-26 05:02:00,
2009-09-25 22:04:00,81.1,38.6,29.92,NE,49,1.0,1.0,22,0.00,,,0.00,Wunderground v.1.15,2009-09-26 05:04:00,
2009-09-25 22:06:00,81.2,38.7,29.92,NE,49,0.0,1.0,22,0.00,,,0.00,Wunderground v.1.15,2009-09-26 05:06:00,
2009-09-25 22:07:00,81.2,39.9,29.92,NE,49,1.0,1.0,23,0.00,,,0.00,Wunderground v.1.15,2009-09-26 05:07:00,
2009-09-25 22:08:00,81.2,39.9,29.92,NE,48,0.0,1.0,23,0.00,,,0.00,Wunderground v.1.15,2009-09-26 05:08:00,
2009-09-25 22:09:00,81.1,39.8,29.92,NE,49,1.0,1.0,23,0.00,,,0.00,Wunderground v.1.15,2009-09-26 05:09:00,
2009-09-25 22:11:00,80.9,39.6,29.92,NE,49,1.0,2.0,23,0.00,,,0.00,Wunderground v.1.15,2009-09-26 05:11:00,
2009-09-25 22:13:00,80.7,38.3,29.92,NE,49,1.0,2.0,22,0.00,,,0.00,Wunderground v.1.15,2009-09-26 05:13:00,
2009-09-25 22:14:00,80.6,39.4,29.92,NE,49,0.0,2.0,23,0.00,,,0.00,Wunderground v.1.15,2009-09-26 05:14:00,
2009-09-25 22:17:00,80.3,38.0,29.92,NE,49,0.0,2.0,22,0.00,,,0.00,Wunderground v.1.15,2009-09-26 05:17:00,
2009-09-25 22:18:00,80.1,38.9,29.92,NE,48,0.0,2.0,23,0.00,,,0.00,Wunderground v.1.15,2009-09-26 05:18:00,
2009-09-25 22:19:00,79.9,38.8,29.92,NE,49,0.0,2.0,23,0.00,,,0.00,Wunderground v.1.15,2009-09-26 05:19:00,
2009-09-25 22:22:00,80.0,38.9,29.92,NE,49,0.0,1.0,23,0.00,,,0.00,Wunderground v.1.15,2009-09-26 05:22:00,
2009-09-25 22:23:00,80.0,38.9,29.92,NE,49,0.0,1.0,23,0.00,,,0.00,Wunderground v.1.15,2009-09-26 05:23:00,
2009-09-25 22:24:00,80.1,38.9,29.92,NE,49,0.0,1.0,23,0.00,,,0.00,Wunderground v.1.15,2009-09-26 05:24:00,
2009-09-25 22:27:00,80.2,40.1,29.92,NE,48,0.0,1.0,24,0.00,,,0.00,Wunderground v.1.15,2009-09-26 05:27:00,
2009-09-25 22:28:00,80.3,40.2,29.92,NE,48,0.0,1.0,24,0.00,,,0.00,Wunderground v.1.15,2009-09-26 05:28:00,
2009-09-25 22:29:00,80.5,39.3,29.92,NE,49,0.0,1.0,23,0.00,,,0.00,Wunderground v.1.15,2009-09-26 05:29:00,
2009-09-25 22:32:00,80.4,39.2,29.92,NE,48,0.0,0.0,23,0.00,,,0.00,Wunderground v.1.15,2009-09-26 05:32:00,
2009-09-25 22:33:00,80.5,40.4,29.93,NE,48,1.0,1.0,24,0.00,,,0.00,Wunderground v.1.15,2009-09-26 05:33:00,
2009-09-25 22:34:00,80.7,40.5,29.93,NE,49,0.0,1.0,24,0.00,,,0.00,Wunderground v.1.15,2009-09-26 05:34:00,
2009-09-25 22:37:00,80.6,39.4,29.93,NE,49,0.0,1.0,23,0.00,,,0.00,Wunderground v.1.15,2009-09-26 05:37:00,
2009-09-25 22:38:00,80.3,39.1,29.93,NE,49,0.0,1.0,23,0.00,,,0.00,Wunderground v.1.15,2009-09-26 05:38:00,
2009-09-25 22:39:00,80.0,40.0,29.93,NE,49,0.0,1.0,24,0.00,,,0.00,Wunderground v.1.15,2009-09-26 05:39:00,
2009-09-25 22:40:00,79.8,39.8,29.93,NE,48,0.0,0.0,24,0.00,,,0.00,Wunderground v.1.15,2009-09-26 05:40:00,
2009-09-25 22:42:00,79.8,39.8,29.93,NE,49,0.0,0.0,24,0.00,,,0.00,Wunderground v.1.15,2009-09-26 05:42:00,
2009-09-25 22:44:00,79.7,39.7,29.93,NE,49,0.0,0.0,24,0.00,,,0.00,Wunderground v.1.15,2009-09-26 05:44:00,
2009-09-25 22:45:00,79.9,39.9,29.93,NE,49,0.0,0.0,24,0.00,,,0.00,Wunderground v.1.15,2009-09-26 05:45:00,
2009-09-25 22:47:00,80.1,40.0,29.93,NE,49,0.0,1.0,24,0.00,,,0.00,Wunderground v.1.15,2009-09-26 05:47:00,
2009-09-25 22:49:00,80.3,40.2,29.93,NE,49,0.0,1.0,24,0.00,,,0.00,Wunderground v.1.15,2009-09-26 05:49:00,
2009-09-25 22:50:00,80.3,40.2,29.93,NE,49,0.0,0.0,24,0.00,,,0.00,Wunderground v.1.15,2009-09-26 05:50:00,
2009-09-25 22:52:00,80.5,40.4,29.93,NE,49,0.0,1.0,24,0.00,,,0.00,Wunderground v.1.15,2009-09-26 05:52:00,
2009-09-25 22:54:00,80.6,39.4,29.93,NE,49,0.0,1.0,23,0.00,,,0.00,Wunderground v.1.15,2009-09-26 05:54:00,
2009-09-25 22:55:00,80.5,40.4,29.93,NE,49,0.0,1.0,24,0.00,,,0.00,Wunderground v.1.15,2009-09-26 05:55:00,
2009-09-25 22:56:00,80.5,39.3,29.93,NE,49,1.0,1.0,23,0.00,,,0.00,Wunderground v.1.15,2009-09-26 05:56:00,
2009-09-25 22:58:00,80.7,39.4,29.93,NE,48,0.0,1.0,23,0.00,,,0.00,Wunderground v.1.15,2009-09-26 05:58:00,
2009-09-25 22:59:00,80.9,39.6,29.93,NE,49,0.0,1.0,23,0.00,,,0.00,Wunderground v.1.15,2009-09-26 05:59:00,
2009-09-25 23:00:00,80.7,40.5,29.93,NE,49,0.0,0.0,24,0.00,,,0.00,Wunderground v.1.15,2009-09-26 06:00:00,
2009-09-25 23:01:00,80.1,38.9,29.93,NE,49,0.0,0.0,23,0.00,,,0.00,Wunderground v.1.15,2009-09-26 06:01:00,
2009-09-25 23:03:00,80.2,37.9,29.93,NE,49,0.0,0.0,22,0.00,,,0.00,Wunderground v.1.15,2009-09-26 06:03:00,
2009-09-25 23:04:00,80.5,38.1,29.93,NE,48,0.0,1.0,22,0.00,,,0.00,Wunderground v.1.15,2009-09-26 06:04:00,
2009-09-25 23:05:00,80.6,38.2,29.93,NE,48,0.0,1.0,22,0.00,,,0.00,Wunderground v.1.15,2009-09-26 06:05:00,
2009-09-25 23:07:00,80.6,37.0,29.93,NE,48,0.0,1.0,21,0.00,,,0.00,Wunderground v.1.15,2009-09-26 06:07:00,
2009-09-25 23:08:00,80.6,37.0,29.93,NE,49,0.0,1.0,21,0.00,,,0.00,Wunderground v.1.15,2009-09-26 06:08:00,
2009-09-25 23:10:00,80.6,37.0,29.93,NE,49,0.0,0.0,21,0.00,,,0.00,Wunderground v.1.15,2009-09-26 06:10:00,
2009-09-25 23:12:00,80.8,36.0,29.93,NE,48,0.0,1.0,20,0.00,,,0.00,Wunderground v.1.15,2009-09-26 06:12:00,
2009-09-25 23:13:00,80.8,37.2,29.93,NE,48,0.0,1.0,21,0.00,,,0.00,Wunderground v.1.15,2009-09-26 06:13:00,
2009-09-25 23:15:00,80.8,37.2,29.93,NE,48,1.0,1.0,21,0.00,,,0.00,Wunderground v.1.15,2009-09-26 06:15:00,
2009-09-25 23:16:00,80.9,36.1,29.93,NE,48,0.0,1.0,20,0.00,,,0.00,Wunderground v.1.15,2009-09-26 06:16:00,
2009-09-25 23:17:00,80.9,34.8,29.93,NE,49,0.0,1.0,19,0.00,,,0.00,Wunderground v.1.15,2009-09-26 06:17:00,
2009-09-25 23:18:00,81.0,34.8,29.93,NE,49,0.0,1.0,19,0.00,,,0.00,Wunderground v.1.15,2009-09-26 06:18:00,
2009-09-25 23:21:00,81.1,34.9,29.93,NE,49,0.0,1.0,19,0.00,,,0.00,Wunderground v.1.15,2009-09-26 06:21:00,
2009-09-25 23:22:00,81.1,34.9,29.93,NE,49,0.0,1.0,19,0.00,,,0.00,Wunderground v.1.15,2009-09-26 06:22:00,
2009-09-25 23:23:00,81.1,34.9,29.93,NE,49,0.0,1.0,19,0.00,,,0.00,Wunderground v.1.15,2009-09-26 06:23:00,
2009-09-25 23:26:00,81.1,34.9,29.93,NE,48,0.0,1.0,19,0.00,,,0.00,Wunderground v.1.15,2009-09-26 06:26:00,
2009-09-25 23:27:00,81.1,34.9,29.93,NE,49,0.0,1.0,19,0.00,,,0.00,Wunderground v.1.15,2009-09-26 06:27:00,
2009-09-25 23:29:00,80.9,36.1,29.93,NE,49,0.0,1.0,20,0.00,,,0.00,Wunderground v.1.15,2009-09-26 06:29:00,
2009-09-25 23:31:00,80.2,36.7,29.93,NE,49,1.0,3.0,21,0.00,,,0.00,Wunderground v.1.15,2009-09-26 06:31:00,
2009-09-25 23:32:00,80.0,37.7,29.93,NE,49,3.0,3.0,22,0.00,,,0.00,Wunderground v.1.15,2009-09-26 06:32:00,
2009-09-25 23:33:00,79.7,38.6,29.93,NE,48,2.0,3.0,23,0.00,,,0.00,Wunderground v.1.15,2009-09-26 06:33:00,
2009-09-25 23:34:00,79.4,37.2,29.93,ENE,59,1.0,4.0,22,0.00,,,0.00,Wunderground v.1.15,2009-09-26 06:34:00,
2009-09-25 23:36:00,79.2,35.9,29.93,ENE,59,2.0,4.0,21,0.00,,,0.00,Wunderground v.1.15,2009-09-26 06:36:00,
2009-09-25 23:37:00,79.1,35.8,29.93,ENE,64,5.0,5.0,21,0.00,,,0.00,Wunderground v.1.15,2009-09-26 06:37:00,
2009-09-25 23:38:00,79.0,35.7,29.93,ENE,65,2.0,5.0,21,0.00,,,0.00,Wunderground v.1.15,2009-09-26 06:38:00,
2009-09-25 23:40:00,79.0,35.7,29.93,ENE,65,4.0,4.0,21,0.00,,,0.00,Wunderground v.1.15,2009-09-26 06:40:00,
2009-09-25 23:41:00,78.9,35.6,29.93,ENE,65,3.0,4.0,21,0.00,,,0.00,Wunderground v.1.15,2009-09-26 06:41:00,
2009-09-25 23:42:00,79.0,35.7,29.93,ENE,65,2.0,4.0,21,0.00,,,0.00,Wunderground v.1.15,2009-09-26 06:42:00,
2009-09-25 23:43:00,78.9,35.6,29.93,NE,56,3.0,5.0,21,0.00,,,0.00,Wunderground v.1.15,2009-09-26 06:43:00,
2009-09-25 23:45:00,78.7,35.5,29.93,ENE,61,0.0,5.0,21,0.00,,,0.00,Wunderground v.1.15,2009-09-26 06:45:00,
2009-09-25 23:47:00,78.7,35.5,29.93,ENE,61,2.0,5.0,21,0.00,,,0.00,Wunderground v.1.15,2009-09-26 06:47:00,
2009-09-25 23:48:00,78.7,35.5,29.93,ENE,61,2.0,5.0,21,0.00,,,0.00,Wunderground v.1.15,2009-09-26 06:48:00,
2009-09-25 23:50:00,78.7,35.5,29.93,ENE,61,2.0,2.0,21,0.00,,,0.00,Wunderground v.1.15,2009-09-26 06:50:00,
2009-09-25 23:52:00,78.4,35.2,29.93,ENE,60,0.0,2.0,21,0.00,,,0.00,Wunderground v.1.15,2009-09-26 06:52:00,
2009-09-25 23:53:00,78.2,35.0,29.92,ENE,61,0.0,2.0,21,0.00,,,0.00,Wunderground v.1.15,2009-09-26 06:53:00,
2009-09-25 23:55:00,78.3,35.1,29.93,ENE,61,0.0,2.0,21,0.00,,,0.00,Wunderground v.1.15,2009-09-26 06:55:00,
2009-09-25 23:57:00,78.7,34.2,29.93,ENE,61,1.0,2.0,20,0.00,,,0.00,Wunderground v.1.15,2009-09-26 06:57:00,
2009-09-25 23:58:00,79.0,34.5,29.93,ENE,61,1.0,2.0,20,0.00,,,0.00,Wunderground v.1.15,2009-09-26 06:58:00,